<?xml version='1.0' encoding='UTF-8'?>
<gpx version="1.1" creator="https://www.komoot.de" xmlns="http://www.topografix.com/GPX/1/1" xmlns:xsi="http://www.w3.org/2001/XMLSchema-instance" xsi:schemaLocation="http://www.topografix.com/GPX/1/1 http://www.topografix.com/GPX/1/1/gpx.xsd">
  <metadata>
    <name>CX.DBC.76.Klinker-gravel classic 2026 lang v1</name>
    <author>
      <link href="https://www.komoot.de">
        <text>komoot</text>
        <type>text/html</type>
      </link>
    </author>
  </metadata>
  <wpt lat="52.213687" lon="5.547868">
    <name>Uitzicht over de heide</name>
    <sym>Flag, Blue</sym>
  </wpt>
  <wpt lat="52.207626" lon="5.553957">
    <name>Veldhoefweg onverhard (gravel)</name>
    <sym>Flag, Blue</sym>
  </wpt>
  <wpt lat="52.253999" lon="5.663162">
    <name>Zandig pad door het bos bij het Solse Gat</name>
    <sym>Flag, Blue</sym>
  </wpt>
  <wpt lat="52.250912" lon="5.675524">
    <name>De Laak, mooie bosweg</name>
    <sym>Flag, Blue</sym>
  </wpt>
  <wpt lat="52.261478" lon="5.681309">
    <name>Dodenweg gravelstrook</name>
    <sym>Flag, Blue</sym>
  </wpt>
  <wpt lat="52.268332" lon="5.704363">
    <name>Snackbar 't Speuldje</name>
    <sym>Restaurant</sym>
  </wpt>
  <wpt lat="52.270172" lon="5.704025">
    <name>Strade Bianche Tonnenberg</name>
    <sym>Flag, Blue</sym>
  </wpt>
  <wpt lat="52.284485" lon="5.689939">
    <name>Romeins Marskamp Ermelo</name>
    <sym>Flag, Blue</sym>
  </wpt>
  <wpt lat="52.290755" lon="5.671108">
    <name>Ermelose Heide</name>
    <sym>Flag, Blue</sym>
  </wpt>
  <wpt lat="52.285538" lon="5.629399">
    <name>Rechte gravelstrook in de Veluwe</name>
    <sym>Flag, Blue</sym>
  </wpt>
  <wpt lat="52.280643" lon="5.615643">
    <name>Groevenbeeklaan grindstrook</name>
    <sym>Flag, Blue</sym>
  </wpt>
  <wpt lat="52.285705" lon="5.614287">
    <name>Groevenbeekse Heide</name>
    <sym>Flag, Blue</sym>
  </wpt>
  <wpt lat="52.287077" lon="5.613944">
    <name>Prachtig gravelpad Groevenbeekse Heide</name>
    <sym>Flag, Blue</sym>
  </wpt>
  <wpt lat="52.281952" lon="5.597967">
    <name>Onverhard fietspad tussen spoor en hei</name>
    <sym>Flag, Blue</sym>
  </wpt>
  <wpt lat="52.266718" lon="5.601952">
    <name>Kerkepad</name>
    <sym>Flag, Blue</sym>
  </wpt>
  <wpt lat="52.254997" lon="5.556350">
    <name>Hoeverveldweg grindstrook</name>
    <sym>Flag, Blue</sym>
  </wpt>
  <wpt lat="52.250929" lon="5.522605">
    <name>Gravelpad Oldenallerallee en Leembruggerweg</name>
    <sym>Flag, Blue</sym>
  </wpt>
  <wpt lat="52.221891" lon="5.503869">
    <name>Luxoolseweg Gravelpad</name>
    <sym>Flag, Blue</sym>
  </wpt>
  <trk>
    <name>CX.DBC.76.Klinker-gravel classic 2026 lang v1</name>
    <type>mtb_easy</type>
    <trkseg>
      <trkpt lat="52.222227" lon="5.501079">
        <ele>2.575051</ele>
        <time>2026-08-25T17:14:27.792Z</time>
      </trkpt>
      <trkpt lat="52.222197" lon="5.500985">
        <ele>2.575051</ele>
        <time>2026-08-25T17:14:28.911Z</time>
      </trkpt>
      <trkpt lat="52.222071" lon="5.500700">
        <ele>2.575051</ele>
        <time>2026-08-25T17:14:32.649Z</time>
      </trkpt>
      <trkpt lat="52.221305" lon="5.499645">
        <ele>2.643668</ele>
        <time>2026-08-25T17:14:50.114Z</time>
      </trkpt>
      <trkpt lat="52.220717" lon="5.498757">
        <ele>2.787126</ele>
        <time>2026-08-25T17:15:04.642Z</time>
      </trkpt>
      <trkpt lat="52.220591" lon="5.499039">
        <ele>2.825420</ele>
        <time>2026-08-25T17:15:08.565Z</time>
      </trkpt>
      <trkpt lat="52.220176" lon="5.499968">
        <ele>2.880949</ele>
        <time>2026-08-25T17:15:21.042Z</time>
      </trkpt>
      <trkpt lat="52.220021" lon="5.500117">
        <ele>2.871346</ele>
        <time>2026-08-25T17:15:24.589Z</time>
      </trkpt>
      <trkpt lat="52.219936" lon="5.500249">
        <ele>2.865083</ele>
        <time>2026-08-25T17:15:26.901Z</time>
      </trkpt>
      <trkpt lat="52.219752" lon="5.500867">
        <ele>2.842609</ele>
        <time>2026-08-25T17:15:35.197Z</time>
      </trkpt>
      <trkpt lat="52.219575" lon="5.501181">
        <ele>2.828653</ele>
        <time>2026-08-25T17:15:40.296Z</time>
      </trkpt>
      <trkpt lat="52.219631" lon="5.501319">
        <ele>2.823239</ele>
        <time>2026-08-25T17:15:42.254Z</time>
      </trkpt>
      <trkpt lat="52.219663" lon="5.501466">
        <ele>2.818137</ele>
        <time>2026-08-25T17:15:43.849Z</time>
      </trkpt>
      <trkpt lat="52.219688" lon="5.502003">
        <ele>2.802167</ele>
        <time>2026-08-25T17:15:49.306Z</time>
      </trkpt>
      <trkpt lat="52.219681" lon="5.502473">
        <ele>2.827678</ele>
        <time>2026-08-25T17:15:54.124Z</time>
      </trkpt>
      <trkpt lat="52.219407" lon="5.503662">
        <ele>2.896608</ele>
        <time>2026-08-25T17:16:12.517Z</time>
      </trkpt>
      <trkpt lat="52.218610" lon="5.507110">
        <ele>3.249033</ele>
        <time>2026-08-25T17:17:06.871Z</time>
      </trkpt>
      <trkpt lat="52.217846" lon="5.509433">
        <ele>3.399637</ele>
        <time>2026-08-25T17:17:44.616Z</time>
      </trkpt>
      <trkpt lat="52.217760" lon="5.509854">
        <ele>3.420018</ele>
        <time>2026-08-25T17:17:51.034Z</time>
      </trkpt>
      <trkpt lat="52.217785" lon="5.510390">
        <ele>3.464811</ele>
        <time>2026-08-25T17:17:58.865Z</time>
      </trkpt>
      <trkpt lat="52.218230" lon="5.513740">
        <ele>3.955622</ele>
        <time>2026-08-25T17:18:49.636Z</time>
      </trkpt>
      <trkpt lat="52.218280" lon="5.514990">
        <ele>4.217715</ele>
        <time>2026-08-25T17:19:08.691Z</time>
      </trkpt>
      <trkpt lat="52.218270" lon="5.515700">
        <ele>4.366308</ele>
        <time>2026-08-25T17:19:19.626Z</time>
      </trkpt>
      <trkpt lat="52.218190" lon="5.516390">
        <ele>4.452276</ele>
        <time>2026-08-25T17:19:30.294Z</time>
      </trkpt>
      <trkpt lat="52.218130" lon="5.516700">
        <ele>4.478686</ele>
        <time>2026-08-25T17:19:35.145Z</time>
      </trkpt>
      <trkpt lat="52.217970" lon="5.517300">
        <ele>4.531846</ele>
        <time>2026-08-25T17:19:44.762Z</time>
      </trkpt>
      <trkpt lat="52.217800" lon="5.517810">
        <ele>4.579012</ele>
        <time>2026-08-25T17:19:53.133Z</time>
      </trkpt>
      <trkpt lat="52.217775" lon="5.518004">
        <ele>4.595117</ele>
        <time>2026-08-25T17:19:55.960Z</time>
      </trkpt>
      <trkpt lat="52.217770" lon="5.518040">
        <ele>4.598116</ele>
        <time>2026-08-25T17:19:56.483Z</time>
      </trkpt>
      <trkpt lat="52.217770" lon="5.518200">
        <ele>4.611114</ele>
        <time>2026-08-25T17:19:58.750Z</time>
      </trkpt>
      <trkpt lat="52.217861" lon="5.518457">
        <ele>4.635228</ele>
        <time>2026-08-25T17:20:02.924Z</time>
      </trkpt>
      <trkpt lat="52.217981" lon="5.518957">
        <ele>4.646347</ele>
        <time>2026-08-25T17:20:10.440Z</time>
      </trkpt>
      <trkpt lat="52.218011" lon="5.519327">
        <ele>4.639856</ele>
        <time>2026-08-25T17:20:15.633Z</time>
      </trkpt>
      <trkpt lat="52.217949" lon="5.519597">
        <ele>4.634840</ele>
        <time>2026-08-25T17:20:19.665Z</time>
      </trkpt>
      <trkpt lat="52.217074" lon="5.522545">
        <ele>4.832089</ele>
        <time>2026-08-25T17:21:06.183Z</time>
      </trkpt>
      <trkpt lat="52.216146" lon="5.525652">
        <ele>5.847012</ele>
        <time>2026-08-25T17:22:00.331Z</time>
      </trkpt>
      <trkpt lat="52.216170" lon="5.526060">
        <ele>6.009990</ele>
        <time>2026-08-25T17:22:07.150Z</time>
      </trkpt>
      <trkpt lat="52.216710" lon="5.527870">
        <ele>6.689147</ele>
        <time>2026-08-25T17:22:40.485Z</time>
      </trkpt>
      <trkpt lat="52.216780" lon="5.528240">
        <ele>6.808038</ele>
        <time>2026-08-25T17:22:46.546Z</time>
      </trkpt>
      <trkpt lat="52.216882" lon="5.529061">
        <ele>7.065233</ele>
        <time>2026-08-25T17:22:59.130Z</time>
      </trkpt>
      <trkpt lat="52.217490" lon="5.534606">
        <ele>6.645061</ele>
        <time>2026-08-25T17:24:17.171Z</time>
      </trkpt>
      <trkpt lat="52.217711" lon="5.536707">
        <ele>6.806374</ele>
        <time>2026-08-25T17:24:47.200Z</time>
      </trkpt>
      <trkpt lat="52.218046" lon="5.540508">
        <ele>7.736114</ele>
        <time>2026-08-25T17:25:47.889Z</time>
      </trkpt>
      <trkpt lat="52.216216" lon="5.540744">
        <ele>8.068607</ele>
        <time>2026-08-25T17:26:25.438Z</time>
      </trkpt>
      <trkpt lat="52.213304" lon="5.541120">
        <ele>8.239710</ele>
        <time>2026-08-25T17:27:23.633Z</time>
      </trkpt>
      <trkpt lat="52.213453" lon="5.543776">
        <ele>8.411948</ele>
        <time>2026-08-25T17:28:25.008Z</time>
      </trkpt>
      <trkpt lat="52.213637" lon="5.547025">
        <ele>8.675005</ele>
        <time>2026-08-25T17:29:40.798Z</time>
      </trkpt>
      <trkpt lat="52.213680" lon="5.547869">
        <ele>8.738190</ele>
        <time>2026-08-25T17:29:50.912Z</time>
      </trkpt>
      <trkpt lat="52.213937" lon="5.552870">
        <ele>8.865367</ele>
        <time>2026-08-25T17:30:50.054Z</time>
      </trkpt>
      <trkpt lat="52.213658" lon="5.552820">
        <ele>8.886216</ele>
        <time>2026-08-25T17:30:56.667Z</time>
      </trkpt>
      <trkpt lat="52.212190" lon="5.553110">
        <ele>9.224849</ele>
        <time>2026-08-25T17:31:32.291Z</time>
      </trkpt>
      <trkpt lat="52.211269" lon="5.553240">
        <ele>9.545082</ele>
        <time>2026-08-25T17:31:55.760Z</time>
      </trkpt>
      <trkpt lat="52.210725" lon="5.553317">
        <ele>9.591062</ele>
        <time>2026-08-25T17:32:09.515Z</time>
      </trkpt>
      <trkpt lat="52.207588" lon="5.553697">
        <ele>9.543245</ele>
        <time>2026-08-25T17:33:21.483Z</time>
      </trkpt>
      <trkpt lat="52.207602" lon="5.553960">
        <ele>9.558672</ele>
        <time>2026-08-25T17:33:24.571Z</time>
      </trkpt>
      <trkpt lat="52.208573" lon="5.571478">
        <ele>10.684106</ele>
        <time>2026-08-25T17:36:56.046Z</time>
      </trkpt>
      <trkpt lat="52.208750" lon="5.574914">
        <ele>11.465233</ele>
        <time>2026-08-25T17:37:40.038Z</time>
      </trkpt>
      <trkpt lat="52.208871" lon="5.576841">
        <ele>12.051189</ele>
        <time>2026-08-25T17:38:05.647Z</time>
      </trkpt>
      <trkpt lat="52.208891" lon="5.577228">
        <ele>12.152337</ele>
        <time>2026-08-25T17:38:10.958Z</time>
      </trkpt>
      <trkpt lat="52.208978" lon="5.578909">
        <ele>12.550317</ele>
        <time>2026-08-25T17:38:33.439Z</time>
      </trkpt>
      <trkpt lat="52.209252" lon="5.583596">
        <ele>12.735364</ele>
        <time>2026-08-25T17:39:28.777Z</time>
      </trkpt>
      <trkpt lat="52.209608" lon="5.590451">
        <ele>12.439997</ele>
        <time>2026-08-25T17:40:47.978Z</time>
      </trkpt>
      <trkpt lat="52.210369" lon="5.590573">
        <ele>12.509800</ele>
        <time>2026-08-25T17:41:04.028Z</time>
      </trkpt>
      <trkpt lat="52.210628" lon="5.590615">
        <ele>12.577733</ele>
        <time>2026-08-25T17:41:09.508Z</time>
      </trkpt>
      <trkpt lat="52.210931" lon="5.590756">
        <ele>12.659968</ele>
        <time>2026-08-25T17:41:16.100Z</time>
      </trkpt>
      <trkpt lat="52.211675" lon="5.591395">
        <ele>12.879403</ele>
        <time>2026-08-25T17:41:32.806Z</time>
      </trkpt>
      <trkpt lat="52.211971" lon="5.591473">
        <ele>12.957660</ele>
        <time>2026-08-25T17:41:38.787Z</time>
      </trkpt>
      <trkpt lat="52.213857" lon="5.591781">
        <ele>13.378933</ele>
        <time>2026-08-25T17:42:17.511Z</time>
      </trkpt>
      <trkpt lat="52.213948" lon="5.591795">
        <ele>13.362777</ele>
        <time>2026-08-25T17:42:19.278Z</time>
      </trkpt>
      <trkpt lat="52.213988" lon="5.591840">
        <ele>13.354189</ele>
        <time>2026-08-25T17:42:20.191Z</time>
      </trkpt>
      <trkpt lat="52.214426" lon="5.591984">
        <ele>13.275215</ele>
        <time>2026-08-25T17:42:28.627Z</time>
      </trkpt>
      <trkpt lat="52.214606" lon="5.591615">
        <ele>13.224134</ele>
        <time>2026-08-25T17:42:33.972Z</time>
      </trkpt>
      <trkpt lat="52.215011" lon="5.590074">
        <ele>13.011491</ele>
        <time>2026-08-25T17:42:52.696Z</time>
      </trkpt>
      <trkpt lat="52.216700" lon="5.582664">
        <ele>11.353393</ele>
        <time>2026-08-25T17:44:20.974Z</time>
      </trkpt>
      <trkpt lat="52.217008" lon="5.581132">
        <ele>11.043523</ele>
        <time>2026-08-25T17:44:39.442Z</time>
      </trkpt>
      <trkpt lat="52.217112" lon="5.580286">
        <ele>10.877603</ele>
        <time>2026-08-25T17:44:49.202Z</time>
      </trkpt>
      <trkpt lat="52.217472" lon="5.576350">
        <ele>9.921733</ele>
        <time>2026-08-25T17:45:32.799Z</time>
      </trkpt>
      <trkpt lat="52.217517" lon="5.575853">
        <ele>9.937809</ele>
        <time>2026-08-25T17:45:38.629Z</time>
      </trkpt>
      <trkpt lat="52.217569" lon="5.575553">
        <ele>9.953943</ele>
        <time>2026-08-25T17:45:42.350Z</time>
      </trkpt>
      <trkpt lat="52.217590" lon="5.575649">
        <ele>9.959217</ele>
        <time>2026-08-25T17:45:43.635Z</time>
      </trkpt>
      <trkpt lat="52.218119" lon="5.576911">
        <ele>10.038342</ele>
        <time>2026-08-25T17:46:03.220Z</time>
      </trkpt>
      <trkpt lat="52.218236" lon="5.577104">
        <ele>10.052391</ele>
        <time>2026-08-25T17:46:06.787Z</time>
      </trkpt>
      <trkpt lat="52.219354" lon="5.578464">
        <ele>10.222822</ele>
        <time>2026-08-25T17:46:35.321Z</time>
      </trkpt>
      <trkpt lat="52.220933" lon="5.580024">
        <ele>10.310597</ele>
        <time>2026-08-25T17:47:13.126Z</time>
      </trkpt>
      <trkpt lat="52.221018" lon="5.580098">
        <ele>10.311864</ele>
        <time>2026-08-25T17:47:15.016Z</time>
      </trkpt>
      <trkpt lat="52.222197" lon="5.581220">
        <ele>10.075153</ele>
        <time>2026-08-25T17:47:40.716Z</time>
      </trkpt>
      <trkpt lat="52.222773" lon="5.581803">
        <ele>9.902385</ele>
        <time>2026-08-25T17:47:53.692Z</time>
      </trkpt>
      <trkpt lat="52.223108" lon="5.582218">
        <ele>9.859187</ele>
        <time>2026-08-25T17:48:02.016Z</time>
      </trkpt>
      <trkpt lat="52.223655" lon="5.583103">
        <ele>9.860347</ele>
        <time>2026-08-25T17:48:17.598Z</time>
      </trkpt>
      <trkpt lat="52.223771" lon="5.583243">
        <ele>9.860565</ele>
        <time>2026-08-25T17:48:20.542Z</time>
      </trkpt>
      <trkpt lat="52.225320" lon="5.584476">
        <ele>9.832362</ele>
        <time>2026-08-25T17:48:54.537Z</time>
      </trkpt>
      <trkpt lat="52.225654" lon="5.584627">
        <ele>9.823080</ele>
        <time>2026-08-25T17:49:01.355Z</time>
      </trkpt>
      <trkpt lat="52.225983" lon="5.584776">
        <ele>9.813935</ele>
        <time>2026-08-25T17:49:08.134Z</time>
      </trkpt>
      <trkpt lat="52.226026" lon="5.584830">
        <ele>9.812951</ele>
        <time>2026-08-25T17:49:09.201Z</time>
      </trkpt>
      <trkpt lat="52.226197" lon="5.582173">
        <ele>9.792853</ele>
        <time>2026-08-25T17:49:37.552Z</time>
      </trkpt>
      <trkpt lat="52.226267" lon="5.580228">
        <ele>9.451287</ele>
        <time>2026-08-25T17:49:57.093Z</time>
      </trkpt>
      <trkpt lat="52.226318" lon="5.577264">
        <ele>8.924396</ele>
        <time>2026-08-25T17:50:26.133Z</time>
      </trkpt>
      <trkpt lat="52.226311" lon="5.576544">
        <ele>8.805300</ele>
        <time>2026-08-25T17:50:33.534Z</time>
      </trkpt>
      <trkpt lat="52.226283" lon="5.576262">
        <ele>8.758052</ele>
        <time>2026-08-25T17:50:36.500Z</time>
      </trkpt>
      <trkpt lat="52.226146" lon="5.575625">
        <ele>8.739471</ele>
        <time>2026-08-25T17:50:43.613Z</time>
      </trkpt>
      <trkpt lat="52.226113" lon="5.575044">
        <ele>8.749509</ele>
        <time>2026-08-25T17:50:49.881Z</time>
      </trkpt>
      <trkpt lat="52.226115" lon="5.574543">
        <ele>8.758128</ele>
        <time>2026-08-25T17:50:55.317Z</time>
      </trkpt>
      <trkpt lat="52.226153" lon="5.573646">
        <ele>8.773597</ele>
        <time>2026-08-25T17:51:04.876Z</time>
      </trkpt>
      <trkpt lat="52.226185" lon="5.573289">
        <ele>8.779804</ele>
        <time>2026-08-25T17:51:08.608Z</time>
      </trkpt>
      <trkpt lat="52.226250" lon="5.572572">
        <ele>8.735170</ele>
        <time>2026-08-25T17:51:16.068Z</time>
      </trkpt>
      <trkpt lat="52.226338" lon="5.571975">
        <ele>8.691174</ele>
        <time>2026-08-25T17:51:22.391Z</time>
      </trkpt>
      <trkpt lat="52.228480" lon="5.573704">
        <ele>8.318875</ele>
        <time>2026-08-25T17:52:02.385Z</time>
      </trkpt>
      <trkpt lat="52.229520" lon="5.574543">
        <ele>8.169711</ele>
        <time>2026-08-25T17:52:21.122Z</time>
      </trkpt>
      <trkpt lat="52.230150" lon="5.575052">
        <ele>8.103453</ele>
        <time>2026-08-25T17:52:32.790Z</time>
      </trkpt>
      <trkpt lat="52.230165" lon="5.575229">
        <ele>8.093136</ele>
        <time>2026-08-25T17:52:35.323Z</time>
      </trkpt>
      <trkpt lat="52.229751" lon="5.581835">
        <ele>9.587762</ele>
        <time>2026-08-25T17:54:17.194Z</time>
      </trkpt>
      <trkpt lat="52.229643" lon="5.584765">
        <ele>10.239593</ele>
        <time>2026-08-25T17:55:02.240Z</time>
      </trkpt>
      <trkpt lat="52.229527" lon="5.585822">
        <ele>10.403749</ele>
        <time>2026-08-25T17:55:18.045Z</time>
      </trkpt>
      <trkpt lat="52.229329" lon="5.587559">
        <ele>10.649223</ele>
        <time>2026-08-25T17:55:44.080Z</time>
      </trkpt>
      <trkpt lat="52.229160" lon="5.588720">
        <ele>10.708588</ele>
        <time>2026-08-25T17:56:01.638Z</time>
      </trkpt>
      <trkpt lat="52.229027" lon="5.589253">
        <ele>10.737220</ele>
        <time>2026-08-25T17:56:10.112Z</time>
      </trkpt>
      <trkpt lat="52.228846" lon="5.591163">
        <ele>10.655452</ele>
        <time>2026-08-25T17:56:37.007Z</time>
      </trkpt>
      <trkpt lat="52.228836" lon="5.591505">
        <ele>10.611799</ele>
        <time>2026-08-25T17:56:41.623Z</time>
      </trkpt>
      <trkpt lat="52.228896" lon="5.592947">
        <ele>10.427529</ele>
        <time>2026-08-25T17:57:01.451Z</time>
      </trkpt>
      <trkpt lat="52.228989" lon="5.595762">
        <ele>10.662782</ele>
        <time>2026-08-25T17:57:42.808Z</time>
      </trkpt>
      <trkpt lat="52.228897" lon="5.596616">
        <ele>10.823055</ele>
        <time>2026-08-25T17:57:55.638Z</time>
      </trkpt>
      <trkpt lat="52.228685" lon="5.598563">
        <ele>11.265772</ele>
        <time>2026-08-25T17:58:25.617Z</time>
      </trkpt>
      <trkpt lat="52.228905" lon="5.598764">
        <ele>11.357966</ele>
        <time>2026-08-25T17:58:30.594Z</time>
      </trkpt>
      <trkpt lat="52.229300" lon="5.599125">
        <ele>11.524046</ele>
        <time>2026-08-25T17:58:39.548Z</time>
      </trkpt>
      <trkpt lat="52.229842" lon="5.599884">
        <ele>11.786023</ele>
        <time>2026-08-25T17:58:53.334Z</time>
      </trkpt>
      <trkpt lat="52.230063" lon="5.600144">
        <ele>11.885962</ele>
        <time>2026-08-25T17:58:58.310Z</time>
      </trkpt>
      <trkpt lat="52.230275" lon="5.600236">
        <ele>11.966442</ele>
        <time>2026-08-25T17:59:02.177Z</time>
      </trkpt>
      <trkpt lat="52.231588" lon="5.600184">
        <ele>12.039785</ele>
        <time>2026-08-25T17:59:24.174Z</time>
      </trkpt>
      <trkpt lat="52.231828" lon="5.600174">
        <ele>12.046699</ele>
        <time>2026-08-25T17:59:28.311Z</time>
      </trkpt>
      <trkpt lat="52.232062" lon="5.600170">
        <ele>12.053438</ele>
        <time>2026-08-25T17:59:32.498Z</time>
      </trkpt>
      <trkpt lat="52.232262" lon="5.600164">
        <ele>12.099181</ele>
        <time>2026-08-25T17:59:36.216Z</time>
      </trkpt>
      <trkpt lat="52.232590" lon="5.600148">
        <ele>12.265174</ele>
        <time>2026-08-25T17:59:42.497Z</time>
      </trkpt>
      <trkpt lat="52.232672" lon="5.600144">
        <ele>12.306672</ele>
        <time>2026-08-25T17:59:44.107Z</time>
      </trkpt>
      <trkpt lat="52.233293" lon="5.600115">
        <ele>12.620933</ele>
        <time>2026-08-25T17:59:56.632Z</time>
      </trkpt>
      <trkpt lat="52.233526" lon="5.600205">
        <ele>12.742050</ele>
        <time>2026-08-25T18:00:01.450Z</time>
      </trkpt>
      <trkpt lat="52.233604" lon="5.600361">
        <ele>12.804440</ele>
        <time>2026-08-25T18:00:03.924Z</time>
      </trkpt>
      <trkpt lat="52.233754" lon="5.601009">
        <ele>12.974834</ele>
        <time>2026-08-25T18:00:12.187Z</time>
      </trkpt>
      <trkpt lat="52.234115" lon="5.601031">
        <ele>13.003431</ele>
        <time>2026-08-25T18:00:18.753Z</time>
      </trkpt>
      <trkpt lat="52.235120" lon="5.601075">
        <ele>13.083017</ele>
        <time>2026-08-25T18:00:35.825Z</time>
      </trkpt>
      <trkpt lat="52.235154" lon="5.601065">
        <ele>13.085751</ele>
        <time>2026-08-25T18:00:36.401Z</time>
      </trkpt>
      <trkpt lat="52.235320" lon="5.600990">
        <ele>13.099386</ele>
        <time>2026-08-25T18:00:39.286Z</time>
      </trkpt>
      <trkpt lat="52.236290" lon="5.599580">
        <ele>13.174923</ele>
        <time>2026-08-25T18:01:01.715Z</time>
      </trkpt>
      <trkpt lat="52.236510" lon="5.599310">
        <ele>13.190334</ele>
        <time>2026-08-25T18:01:06.558Z</time>
      </trkpt>
      <trkpt lat="52.236780" lon="5.599030">
        <ele>13.208244</ele>
        <time>2026-08-25T18:01:12.183Z</time>
      </trkpt>
      <trkpt lat="52.237010" lon="5.598890">
        <ele>13.250287</ele>
        <time>2026-08-25T18:01:16.495Z</time>
      </trkpt>
      <trkpt lat="52.237190" lon="5.598880">
        <ele>13.283652</ele>
        <time>2026-08-25T18:01:19.659Z</time>
      </trkpt>
      <trkpt lat="52.237721" lon="5.599084">
        <ele>13.384707</ele>
        <time>2026-08-25T18:01:29.259Z</time>
      </trkpt>
      <trkpt lat="52.238273" lon="5.599296">
        <ele>13.489757</ele>
        <time>2026-08-25T18:01:39.371Z</time>
      </trkpt>
      <trkpt lat="52.238308" lon="5.600530">
        <ele>13.798140</ele>
        <time>2026-08-25T18:01:53.543Z</time>
      </trkpt>
      <trkpt lat="52.238290" lon="5.600835">
        <ele>13.900149</ele>
        <time>2026-08-25T18:01:57.209Z</time>
      </trkpt>
      <trkpt lat="52.238160" lon="5.601490">
        <ele>14.129375</ele>
        <time>2026-08-25T18:02:05.595Z</time>
      </trkpt>
      <trkpt lat="52.237790" lon="5.602690">
        <ele>14.576771</ele>
        <time>2026-08-25T18:02:22.254Z</time>
      </trkpt>
      <trkpt lat="52.237720" lon="5.603130">
        <ele>14.728429</ele>
        <time>2026-08-25T18:02:27.861Z</time>
      </trkpt>
      <trkpt lat="52.237700" lon="5.603600">
        <ele>14.885600</ele>
        <time>2026-08-25T18:02:33.616Z</time>
      </trkpt>
      <trkpt lat="52.237720" lon="5.603920">
        <ele>14.992907</ele>
        <time>2026-08-25T18:02:37.500Z</time>
      </trkpt>
      <trkpt lat="52.238126" lon="5.606886">
        <ele>15.846156</ele>
        <time>2026-08-25T18:03:12.911Z</time>
      </trkpt>
      <trkpt lat="52.238138" lon="5.606965">
        <ele>15.864693</ele>
        <time>2026-08-25T18:03:13.865Z</time>
      </trkpt>
      <trkpt lat="52.238277" lon="5.607865">
        <ele>16.076079</ele>
        <time>2026-08-25T18:03:24.795Z</time>
      </trkpt>
      <trkpt lat="52.238365" lon="5.608586">
        <ele>16.184017</ele>
        <time>2026-08-25T18:03:32.787Z</time>
      </trkpt>
      <trkpt lat="52.238389" lon="5.608785">
        <ele>16.193084</ele>
        <time>2026-08-25T18:03:34.908Z</time>
      </trkpt>
      <trkpt lat="52.238403" lon="5.608884">
        <ele>16.197627</ele>
        <time>2026-08-25T18:03:36.025Z</time>
      </trkpt>
      <trkpt lat="52.238316" lon="5.609304">
        <ele>16.217448</ele>
        <time>2026-08-25T18:03:40.711Z</time>
      </trkpt>
      <trkpt lat="52.238249" lon="5.609398">
        <ele>16.223897</ele>
        <time>2026-08-25T18:03:42.227Z</time>
      </trkpt>
      <trkpt lat="52.238174" lon="5.609436">
        <ele>16.229630</ele>
        <time>2026-08-25T18:03:43.614Z</time>
      </trkpt>
      <trkpt lat="52.238180" lon="5.609601">
        <ele>16.237019</ele>
        <time>2026-08-25T18:03:45.333Z</time>
      </trkpt>
      <trkpt lat="52.238184" lon="5.609746">
        <ele>16.243508</ele>
        <time>2026-08-25T18:03:46.885Z</time>
      </trkpt>
      <trkpt lat="52.237848" lon="5.609752">
        <ele>16.268039</ele>
        <time>2026-08-25T18:03:52.566Z</time>
      </trkpt>
      <trkpt lat="52.236581" lon="5.609801">
        <ele>16.273155</ele>
        <time>2026-08-25T18:04:14.531Z</time>
      </trkpt>
      <trkpt lat="52.236354" lon="5.609772">
        <ele>16.265468</ele>
        <time>2026-08-25T18:04:18.592Z</time>
      </trkpt>
      <trkpt lat="52.236120" lon="5.609713">
        <ele>16.257475</ele>
        <time>2026-08-25T18:04:22.683Z</time>
      </trkpt>
      <trkpt lat="52.235638" lon="5.609510">
        <ele>16.240670</ele>
        <time>2026-08-25T18:04:31.004Z</time>
      </trkpt>
      <trkpt lat="52.234940" lon="5.609116">
        <ele>16.053604</ele>
        <time>2026-08-25T18:04:42.945Z</time>
      </trkpt>
      <trkpt lat="52.234888" lon="5.609087">
        <ele>16.039389</ele>
        <time>2026-08-25T18:04:43.819Z</time>
      </trkpt>
      <trkpt lat="52.234518" lon="5.608910">
        <ele>15.939650</ele>
        <time>2026-08-25T18:04:50.005Z</time>
      </trkpt>
      <trkpt lat="52.234356" lon="5.608875">
        <ele>15.897377</ele>
        <time>2026-08-25T18:04:52.622Z</time>
      </trkpt>
      <trkpt lat="52.233528" lon="5.608864">
        <ele>15.779211</ele>
        <time>2026-08-25T18:05:06.443Z</time>
      </trkpt>
      <trkpt lat="52.233531" lon="5.609027">
        <ele>15.780461</ele>
        <time>2026-08-25T18:05:08.392Z</time>
      </trkpt>
      <trkpt lat="52.233589" lon="5.609306">
        <ele>15.782719</ele>
        <time>2026-08-25T18:05:12.005Z</time>
      </trkpt>
      <trkpt lat="52.233172" lon="5.609699">
        <ele>15.788746</ele>
        <time>2026-08-25T18:05:21.578Z</time>
      </trkpt>
      <trkpt lat="52.232964" lon="5.609895">
        <ele>15.791752</ele>
        <time>2026-08-25T18:05:26.322Z</time>
      </trkpt>
      <trkpt lat="52.232702" lon="5.610194">
        <ele>15.795753</ele>
        <time>2026-08-25T18:05:32.607Z</time>
      </trkpt>
      <trkpt lat="52.231862" lon="5.611317">
        <ele>15.693131</ele>
        <time>2026-08-25T18:05:53.212Z</time>
      </trkpt>
      <trkpt lat="52.230444" lon="5.612833">
        <ele>15.715149</ele>
        <time>2026-08-25T18:06:24.594Z</time>
      </trkpt>
      <trkpt lat="52.230116" lon="5.613134">
        <ele>15.764405</ele>
        <time>2026-08-25T18:06:32.341Z</time>
      </trkpt>
      <trkpt lat="52.229882" lon="5.613295">
        <ele>15.797646</ele>
        <time>2026-08-25T18:06:37.766Z</time>
      </trkpt>
      <trkpt lat="52.229957" lon="5.614249">
        <ele>16.018259</ele>
        <time>2026-08-25T18:06:53.134Z</time>
      </trkpt>
      <trkpt lat="52.229992" lon="5.614759">
        <ele>16.220661</ele>
        <time>2026-08-25T18:07:01.338Z</time>
      </trkpt>
      <trkpt lat="52.229994" lon="5.614790">
        <ele>16.232955</ele>
        <time>2026-08-25T18:07:01.824Z</time>
      </trkpt>
      <trkpt lat="52.230096" lon="5.615405">
        <ele>16.484245</ele>
        <time>2026-08-25T18:07:11.969Z</time>
      </trkpt>
      <trkpt lat="52.230205" lon="5.616258">
        <ele>16.827910</ele>
        <time>2026-08-25T18:07:25.969Z</time>
      </trkpt>
      <trkpt lat="52.230288" lon="5.616862">
        <ele>17.048808</ele>
        <time>2026-08-25T18:07:35.819Z</time>
      </trkpt>
      <trkpt lat="52.230465" lon="5.617615">
        <ele>17.269264</ele>
        <time>2026-08-25T18:07:48.626Z</time>
      </trkpt>
      <trkpt lat="52.230540" lon="5.617998">
        <ele>17.379170</ele>
        <time>2026-08-25T18:07:54.970Z</time>
      </trkpt>
      <trkpt lat="52.230556" lon="5.618472">
        <ele>17.508925</ele>
        <time>2026-08-25T18:08:02.294Z</time>
      </trkpt>
      <trkpt lat="52.230631" lon="5.618673">
        <ele>17.573257</ele>
        <time>2026-08-25T18:08:05.923Z</time>
      </trkpt>
      <trkpt lat="52.230846" lon="5.619180">
        <ele>17.741809</ele>
        <time>2026-08-25T18:08:15.288Z</time>
      </trkpt>
      <trkpt lat="52.230913" lon="5.619331">
        <ele>17.792774</ele>
        <time>2026-08-25T18:08:18.051Z</time>
      </trkpt>
      <trkpt lat="52.231154" lon="5.619856">
        <ele>17.863271</ele>
        <time>2026-08-25T18:08:26.027Z</time>
      </trkpt>
      <trkpt lat="52.231346" lon="5.620303">
        <ele>17.918672</ele>
        <time>2026-08-25T18:08:32.470Z</time>
      </trkpt>
      <trkpt lat="52.231606" lon="5.621367">
        <ele>18.034914</ele>
        <time>2026-08-25T18:08:46.023Z</time>
      </trkpt>
      <trkpt lat="52.231673" lon="5.621632">
        <ele>18.064005</ele>
        <time>2026-08-25T18:08:49.597Z</time>
      </trkpt>
      <trkpt lat="52.231751" lon="5.621937">
        <ele>18.097857</ele>
        <time>2026-08-25T18:08:53.744Z</time>
      </trkpt>
      <trkpt lat="52.232194" lon="5.621784">
        <ele>18.216427</ele>
        <time>2026-08-25T18:09:02.072Z</time>
      </trkpt>
      <trkpt lat="52.233944" lon="5.621144">
        <ele>18.653912</ele>
        <time>2026-08-25T18:09:35.158Z</time>
      </trkpt>
      <trkpt lat="52.235714" lon="5.620518">
        <ele>18.876456</ele>
        <time>2026-08-25T18:10:07.300Z</time>
      </trkpt>
      <trkpt lat="52.235911" lon="5.620446">
        <ele>18.861478</ele>
        <time>2026-08-25T18:10:10.691Z</time>
      </trkpt>
      <trkpt lat="52.237134" lon="5.620123">
        <ele>18.818710</ele>
        <time>2026-08-25T18:10:31.034Z</time>
      </trkpt>
      <trkpt lat="52.237686" lon="5.619978">
        <ele>19.038170</ele>
        <time>2026-08-25T18:10:40.814Z</time>
      </trkpt>
      <trkpt lat="52.237554" lon="5.621018">
        <ele>19.293478</ele>
        <time>2026-08-25T18:10:53.649Z</time>
      </trkpt>
      <trkpt lat="52.237482" lon="5.621627">
        <ele>19.442572</ele>
        <time>2026-08-25T18:11:01.523Z</time>
      </trkpt>
      <trkpt lat="52.237474" lon="5.621703">
        <ele>19.461109</ele>
        <time>2026-08-25T18:11:02.522Z</time>
      </trkpt>
      <trkpt lat="52.237355" lon="5.622796">
        <ele>19.812638</ele>
        <time>2026-08-25T18:11:16.564Z</time>
      </trkpt>
      <trkpt lat="52.237379" lon="5.624457">
        <ele>20.350290</ele>
        <time>2026-08-25T18:11:36.061Z</time>
      </trkpt>
      <trkpt lat="52.237412" lon="5.626619">
        <ele>20.689487</ele>
        <time>2026-08-25T18:12:00.358Z</time>
      </trkpt>
      <trkpt lat="52.237427" lon="5.627170">
        <ele>20.763523</ele>
        <time>2026-08-25T18:12:12.955Z</time>
      </trkpt>
      <trkpt lat="52.237442" lon="5.627936">
        <ele>20.883422</ele>
        <time>2026-08-25T18:12:30.431Z</time>
      </trkpt>
      <trkpt lat="52.237453" lon="5.628720">
        <ele>21.035471</ele>
        <time>2026-08-25T18:12:48.347Z</time>
      </trkpt>
      <trkpt lat="52.237502" lon="5.631753">
        <ele>21.923762</ele>
        <time>2026-08-25T18:14:01.200Z</time>
      </trkpt>
      <trkpt lat="52.237541" lon="5.634273">
        <ele>22.949068</ele>
        <time>2026-08-25T18:15:04.803Z</time>
      </trkpt>
      <trkpt lat="52.237576" lon="5.635519">
        <ele>23.325864</ele>
        <time>2026-08-25T18:15:34.586Z</time>
      </trkpt>
      <trkpt lat="52.237610" lon="5.637963">
        <ele>24.012415</ele>
        <time>2026-08-25T18:16:31.348Z</time>
      </trkpt>
      <trkpt lat="52.237670" lon="5.639787">
        <ele>24.516666</ele>
        <time>2026-08-25T18:17:16.711Z</time>
      </trkpt>
      <trkpt lat="52.237781" lon="5.643034">
        <ele>25.487065</ele>
        <time>2026-08-25T18:18:34.515Z</time>
      </trkpt>
      <trkpt lat="52.237794" lon="5.644486">
        <ele>25.876555</ele>
        <time>2026-08-25T18:19:08.719Z</time>
      </trkpt>
      <trkpt lat="52.237619" lon="5.646743">
        <ele>26.146943</ele>
        <time>2026-08-25T18:20:04.147Z</time>
      </trkpt>
      <trkpt lat="52.237520" lon="5.647544">
        <ele>26.180956</ele>
        <time>2026-08-25T18:20:22.540Z</time>
      </trkpt>
      <trkpt lat="52.237513" lon="5.647592">
        <ele>26.183010</ele>
        <time>2026-08-25T18:20:23.629Z</time>
      </trkpt>
      <trkpt lat="52.237470" lon="5.647574">
        <ele>26.186027</ele>
        <time>2026-08-25T18:20:25.219Z</time>
      </trkpt>
      <trkpt lat="52.237009" lon="5.647332">
        <ele>26.090447</ele>
        <time>2026-08-25T18:20:42.087Z</time>
      </trkpt>
      <trkpt lat="52.236846" lon="5.647279">
        <ele>25.982421</ele>
        <time>2026-08-25T18:20:47.724Z</time>
      </trkpt>
      <trkpt lat="52.235562" lon="5.647090">
        <ele>25.144467</ele>
        <time>2026-08-25T18:21:32.595Z</time>
      </trkpt>
      <trkpt lat="52.235248" lon="5.647049">
        <ele>25.027998</ele>
        <time>2026-08-25T18:21:44.477Z</time>
      </trkpt>
      <trkpt lat="52.234501" lon="5.647468">
        <ele>24.977165</ele>
        <time>2026-08-25T18:22:15.225Z</time>
      </trkpt>
      <trkpt lat="52.233861" lon="5.647516">
        <ele>24.935932</ele>
        <time>2026-08-25T18:22:39.299Z</time>
      </trkpt>
      <trkpt lat="52.233691" lon="5.647529">
        <ele>24.924979</ele>
        <time>2026-08-25T18:22:45.276Z</time>
      </trkpt>
      <trkpt lat="52.233420" lon="5.647590">
        <ele>24.694369</ele>
        <time>2026-08-25T18:22:54.722Z</time>
      </trkpt>
      <trkpt lat="52.232685" lon="5.647914">
        <ele>23.928991</ele>
        <time>2026-08-25T18:23:20.534Z</time>
      </trkpt>
      <trkpt lat="52.232324" lon="5.648094">
        <ele>23.549519</ele>
        <time>2026-08-25T18:23:33.342Z</time>
      </trkpt>
      <trkpt lat="52.231871" lon="5.648266">
        <ele>23.105576</ele>
        <time>2026-08-25T18:23:49.300Z</time>
      </trkpt>
      <trkpt lat="52.231548" lon="5.648411">
        <ele>23.019403</ele>
        <time>2026-08-25T18:23:55.504Z</time>
      </trkpt>
      <trkpt lat="52.231262" lon="5.648538">
        <ele>22.943160</ele>
        <time>2026-08-25T18:24:01.204Z</time>
      </trkpt>
      <trkpt lat="52.231120" lon="5.648567">
        <ele>22.906346</ele>
        <time>2026-08-25T18:24:03.972Z</time>
      </trkpt>
      <trkpt lat="52.231098" lon="5.648571">
        <ele>22.900652</ele>
        <time>2026-08-25T18:24:04.405Z</time>
      </trkpt>
      <trkpt lat="52.230952" lon="5.648539">
        <ele>22.862758</ele>
        <time>2026-08-25T18:24:07.273Z</time>
      </trkpt>
      <trkpt lat="52.230796" lon="5.648480">
        <ele>22.821565</ele>
        <time>2026-08-25T18:24:10.417Z</time>
      </trkpt>
      <trkpt lat="52.230952" lon="5.648539">
        <ele>22.780373</ele>
        <time>2026-08-25T18:24:13.574Z</time>
      </trkpt>
      <trkpt lat="52.230953" lon="5.648357">
        <ele>22.751697</ele>
        <time>2026-08-25T18:24:17.111Z</time>
      </trkpt>
      <trkpt lat="52.230780" lon="5.648422">
        <ele>22.706030</ele>
        <time>2026-08-25T18:24:20.071Z</time>
      </trkpt>
      <trkpt lat="52.230564" lon="5.648407">
        <ele>22.651537</ele>
        <time>2026-08-25T18:24:23.781Z</time>
      </trkpt>
      <trkpt lat="52.229013" lon="5.648943">
        <ele>23.009429</ele>
        <time>2026-08-25T18:24:52.376Z</time>
      </trkpt>
      <trkpt lat="52.228292" lon="5.649522">
        <ele>23.530045</ele>
        <time>2026-08-25T18:25:07.748Z</time>
      </trkpt>
      <trkpt lat="52.228106" lon="5.649696">
        <ele>23.701165</ele>
        <time>2026-08-25T18:25:12.539Z</time>
      </trkpt>
      <trkpt lat="52.228292" lon="5.649522">
        <ele>23.872285</ele>
        <time>2026-08-25T18:25:17.396Z</time>
      </trkpt>
      <trkpt lat="52.228300" lon="5.649553">
        <ele>23.888733</ele>
        <time>2026-08-25T18:25:18.252Z</time>
      </trkpt>
      <trkpt lat="52.227975" lon="5.649868">
        <ele>24.190435</ele>
        <time>2026-08-25T18:25:27.469Z</time>
      </trkpt>
      <trkpt lat="52.227325" lon="5.650499">
        <ele>24.819416</ele>
        <time>2026-08-25T18:25:46.090Z</time>
      </trkpt>
      <trkpt lat="52.227046" lon="5.650769">
        <ele>25.100076</ele>
        <time>2026-08-25T18:25:54.286Z</time>
      </trkpt>
      <trkpt lat="52.226051" lon="5.651811">
        <ele>26.044377</ele>
        <time>2026-08-25T18:26:22.316Z</time>
      </trkpt>
      <trkpt lat="52.225811" lon="5.652063">
        <ele>26.028080</ele>
        <time>2026-08-25T18:26:28.332Z</time>
      </trkpt>
      <trkpt lat="52.225400" lon="5.652457">
        <ele>26.000859</ele>
        <time>2026-08-25T18:26:37.798Z</time>
      </trkpt>
      <trkpt lat="52.225169" lon="5.652723">
        <ele>25.984714</ele>
        <time>2026-08-25T18:26:43.219Z</time>
      </trkpt>
      <trkpt lat="52.224976" lon="5.652912">
        <ele>25.971860</ele>
        <time>2026-08-25T18:26:47.462Z</time>
      </trkpt>
      <trkpt lat="52.224612" lon="5.653269">
        <ele>25.947608</ele>
        <time>2026-08-25T18:26:55.275Z</time>
      </trkpt>
      <trkpt lat="52.224124" lon="5.653799">
        <ele>25.906302</ele>
        <time>2026-08-25T18:27:06.188Z</time>
      </trkpt>
      <trkpt lat="52.224027" lon="5.653623">
        <ele>25.896016</ele>
        <time>2026-08-25T18:27:08.558Z</time>
      </trkpt>
      <trkpt lat="52.223933" lon="5.653724">
        <ele>25.888035</ele>
        <time>2026-08-25T18:27:10.608Z</time>
      </trkpt>
      <trkpt lat="52.223905" lon="5.653901">
        <ele>25.880093</ele>
        <time>2026-08-25T18:27:12.668Z</time>
      </trkpt>
      <trkpt lat="52.223875" lon="5.653980">
        <ele>25.876055</ele>
        <time>2026-08-25T18:27:13.730Z</time>
      </trkpt>
      <trkpt lat="52.222540" lon="5.655058">
        <ele>25.887709</ele>
        <time>2026-08-25T18:27:43.873Z</time>
      </trkpt>
      <trkpt lat="52.221906" lon="5.655528">
        <ele>25.957662</ele>
        <time>2026-08-25T18:27:58.038Z</time>
      </trkpt>
      <trkpt lat="52.220152" lon="5.656906">
        <ele>25.032669</ele>
        <time>2026-08-25T18:28:31.908Z</time>
      </trkpt>
      <trkpt lat="52.219496" lon="5.657420">
        <ele>24.618769</ele>
        <time>2026-08-25T18:28:43.926Z</time>
      </trkpt>
      <trkpt lat="52.219158" lon="5.657709">
        <ele>24.416097</ele>
        <time>2026-08-25T18:28:50.430Z</time>
      </trkpt>
      <trkpt lat="52.218713" lon="5.658955">
        <ele>23.946767</ele>
        <time>2026-08-25T18:29:04.992Z</time>
      </trkpt>
      <trkpt lat="52.218745" lon="5.658988">
        <ele>23.926661</ele>
        <time>2026-08-25T18:29:06.223Z</time>
      </trkpt>
      <trkpt lat="52.218047" lon="5.660873">
        <ele>23.574208</ele>
        <time>2026-08-25T18:29:32.439Z</time>
      </trkpt>
      <trkpt lat="52.217192" lon="5.661729">
        <ele>23.283626</ele>
        <time>2026-08-25T18:29:51.031Z</time>
      </trkpt>
      <trkpt lat="52.215806" lon="5.663044">
        <ele>22.796365</ele>
        <time>2026-08-25T18:30:21.770Z</time>
      </trkpt>
      <trkpt lat="52.215748" lon="5.663105">
        <ele>22.780948</ele>
        <time>2026-08-25T18:30:23.057Z</time>
      </trkpt>
      <trkpt lat="52.215739" lon="5.663079">
        <ele>22.776860</ele>
        <time>2026-08-25T18:30:23.702Z</time>
      </trkpt>
      <trkpt lat="52.215629" lon="5.663186">
        <ele>22.748249</ele>
        <time>2026-08-25T18:30:25.766Z</time>
      </trkpt>
      <trkpt lat="52.214800" lon="5.663984">
        <ele>22.533207</ele>
        <time>2026-08-25T18:30:41.303Z</time>
      </trkpt>
      <trkpt lat="52.214045" lon="5.664711">
        <ele>22.789972</ele>
        <time>2026-08-25T18:30:56.546Z</time>
      </trkpt>
      <trkpt lat="52.214071" lon="5.664759">
        <ele>22.812047</ele>
        <time>2026-08-25T18:30:57.870Z</time>
      </trkpt>
      <trkpt lat="52.212690" lon="5.666112">
        <ele>23.873746</ele>
        <time>2026-08-25T18:32:03.547Z</time>
      </trkpt>
      <trkpt lat="52.212532" lon="5.666267">
        <ele>24.044671</ele>
        <time>2026-08-25T18:32:11.313Z</time>
      </trkpt>
      <trkpt lat="52.212480" lon="5.666328">
        <ele>24.104048</ele>
        <time>2026-08-25T18:32:14.056Z</time>
      </trkpt>
      <trkpt lat="52.212634" lon="5.666462">
        <ele>24.265862</ele>
        <time>2026-08-25T18:32:18.359Z</time>
      </trkpt>
      <trkpt lat="52.212884" lon="5.666511">
        <ele>24.499326</ele>
        <time>2026-08-25T18:32:24.600Z</time>
      </trkpt>
      <trkpt lat="52.213894" lon="5.667045">
        <ele>25.247650</ele>
        <time>2026-08-25T18:32:48.963Z</time>
      </trkpt>
      <trkpt lat="52.214479" lon="5.667346">
        <ele>25.419794</ele>
        <time>2026-08-25T18:33:01.438Z</time>
      </trkpt>
      <trkpt lat="52.214575" lon="5.667397">
        <ele>25.448127</ele>
        <time>2026-08-25T18:33:03.402Z</time>
      </trkpt>
      <trkpt lat="52.215957" lon="5.668154">
        <ele>25.621677</ele>
        <time>2026-08-25T18:33:31.250Z</time>
      </trkpt>
      <trkpt lat="52.216023" lon="5.668223">
        <ele>25.618674</ele>
        <time>2026-08-25T18:33:32.783Z</time>
      </trkpt>
      <trkpt lat="52.216081" lon="5.668426">
        <ele>25.613417</ele>
        <time>2026-08-25T18:33:35.468Z</time>
      </trkpt>
      <trkpt lat="52.216081" lon="5.668571">
        <ele>25.610014</ele>
        <time>2026-08-25T18:33:37.188Z</time>
      </trkpt>
      <trkpt lat="52.216025" lon="5.668808">
        <ele>25.604052</ele>
        <time>2026-08-25T18:33:40.191Z</time>
      </trkpt>
      <trkpt lat="52.215815" lon="5.670107">
        <ele>25.533296</ele>
        <time>2026-08-25T18:33:55.736Z</time>
      </trkpt>
      <trkpt lat="52.215819" lon="5.670588">
        <ele>25.470192</ele>
        <time>2026-08-25T18:34:01.114Z</time>
      </trkpt>
      <trkpt lat="52.215883" lon="5.671134">
        <ele>25.397269</ele>
        <time>2026-08-25T18:34:07.234Z</time>
      </trkpt>
      <trkpt lat="52.216296" lon="5.673912">
        <ele>25.823510</ele>
        <time>2026-08-25T18:34:40.139Z</time>
      </trkpt>
      <trkpt lat="52.216627" lon="5.675897">
        <ele>27.168184</ele>
        <time>2026-08-25T18:35:12.341Z</time>
      </trkpt>
      <trkpt lat="52.216899" lon="5.676617">
        <ele>28.270828</ele>
        <time>2026-08-25T18:35:27.485Z</time>
      </trkpt>
      <trkpt lat="52.217057" lon="5.677331">
        <ele>29.260417</ele>
        <time>2026-08-25T18:35:41.533Z</time>
      </trkpt>
      <trkpt lat="52.217204" lon="5.678666">
        <ele>30.787842</ele>
        <time>2026-08-25T18:36:06.634Z</time>
      </trkpt>
      <trkpt lat="52.217306" lon="5.679991">
        <ele>31.846528</ele>
        <time>2026-08-25T18:36:28.022Z</time>
      </trkpt>
      <trkpt lat="52.217645" lon="5.680704">
        <ele>32.562014</ele>
        <time>2026-08-25T18:36:40.370Z</time>
      </trkpt>
      <trkpt lat="52.218494" lon="5.682617">
        <ele>33.309374</ele>
        <time>2026-08-25T18:37:09.982Z</time>
      </trkpt>
      <trkpt lat="52.220602" lon="5.687493">
        <ele>36.698747</ele>
        <time>2026-08-25T18:38:39.094Z</time>
      </trkpt>
      <trkpt lat="52.221342" lon="5.689201">
        <ele>38.256000</ele>
        <time>2026-08-25T18:39:11.380Z</time>
      </trkpt>
      <trkpt lat="52.221792" lon="5.690210">
        <ele>39.246428</ele>
        <time>2026-08-25T18:39:31.097Z</time>
      </trkpt>
      <trkpt lat="52.222997" lon="5.692975">
        <ele>41.909975</ele>
        <time>2026-08-25T18:40:26.115Z</time>
      </trkpt>
      <trkpt lat="52.223409" lon="5.693851">
        <ele>42.124083</ele>
        <time>2026-08-25T18:40:40.907Z</time>
      </trkpt>
      <trkpt lat="52.223428" lon="5.693888">
        <ele>42.133443</ele>
        <time>2026-08-25T18:40:41.493Z</time>
      </trkpt>
      <trkpt lat="52.223819" lon="5.694684">
        <ele>42.331244</ele>
        <time>2026-08-25T18:40:53.581Z</time>
      </trkpt>
      <trkpt lat="52.224592" lon="5.696267">
        <ele>42.818169</ele>
        <time>2026-08-25T18:41:18.732Z</time>
      </trkpt>
      <trkpt lat="52.225146" lon="5.697250">
        <ele>43.166088</ele>
        <time>2026-08-25T18:41:37.788Z</time>
      </trkpt>
      <trkpt lat="52.227306" lon="5.700552">
        <ele>45.062734</ele>
        <time>2026-08-25T18:42:45.436Z</time>
      </trkpt>
      <trkpt lat="52.227984" lon="5.698835">
        <ele>44.828329</ele>
        <time>2026-08-25T18:43:08.334Z</time>
      </trkpt>
      <trkpt lat="52.228828" lon="5.694344">
        <ele>41.817011</ele>
        <time>2026-08-25T18:43:57.659Z</time>
      </trkpt>
      <trkpt lat="52.228904" lon="5.693943">
        <ele>41.556909</ele>
        <time>2026-08-25T18:44:02.223Z</time>
      </trkpt>
      <trkpt lat="52.229442" lon="5.691037">
        <ele>40.767988</ele>
        <time>2026-08-25T18:44:37.371Z</time>
      </trkpt>
      <trkpt lat="52.229810" lon="5.689048">
        <ele>40.480954</ele>
        <time>2026-08-25T18:45:02.236Z</time>
      </trkpt>
      <trkpt lat="52.229876" lon="5.688615">
        <ele>40.419312</ele>
        <time>2026-08-25T18:45:12.173Z</time>
      </trkpt>
      <trkpt lat="52.230114" lon="5.687313">
        <ele>39.810334</ele>
        <time>2026-08-25T18:45:42.006Z</time>
      </trkpt>
      <trkpt lat="52.230327" lon="5.686128">
        <ele>39.170467</ele>
        <time>2026-08-25T18:46:08.184Z</time>
      </trkpt>
      <trkpt lat="52.230443" lon="5.685488">
        <ele>38.790527</ele>
        <time>2026-08-25T18:46:22.074Z</time>
      </trkpt>
      <trkpt lat="52.230771" lon="5.683685">
        <ele>36.954189</ele>
        <time>2026-08-25T18:47:00.380Z</time>
      </trkpt>
      <trkpt lat="52.231049" lon="5.682242">
        <ele>35.467570</ele>
        <time>2026-08-25T18:47:30.831Z</time>
      </trkpt>
      <trkpt lat="52.231020" lon="5.682130">
        <ele>35.346626</ele>
        <time>2026-08-25T18:47:33.286Z</time>
      </trkpt>
      <trkpt lat="52.230797" lon="5.682004">
        <ele>34.963416</ele>
        <time>2026-08-25T18:47:41.032Z</time>
      </trkpt>
      <trkpt lat="52.230758" lon="5.681890">
        <ele>34.833539</ele>
        <time>2026-08-25T18:47:43.666Z</time>
      </trkpt>
      <trkpt lat="52.230868" lon="5.678304">
        <ele>31.561783</ele>
        <time>2026-08-25T18:48:57.205Z</time>
      </trkpt>
      <trkpt lat="52.230938" lon="5.675994">
        <ele>29.982031</ele>
        <time>2026-08-25T18:49:45.606Z</time>
      </trkpt>
      <trkpt lat="52.231004" lon="5.673712">
        <ele>28.987034</ele>
        <time>2026-08-25T18:50:34.626Z</time>
      </trkpt>
      <trkpt lat="52.231015" lon="5.673340">
        <ele>28.955801</ele>
        <time>2026-08-25T18:50:43.026Z</time>
      </trkpt>
      <trkpt lat="52.231034" lon="5.672324">
        <ele>28.870555</ele>
        <time>2026-08-25T18:50:57.632Z</time>
      </trkpt>
      <trkpt lat="52.231043" lon="5.672035">
        <ele>28.846287</ele>
        <time>2026-08-25T18:51:01.907Z</time>
      </trkpt>
      <trkpt lat="52.231000" lon="5.671546">
        <ele>28.804857</ele>
        <time>2026-08-25T18:51:09.274Z</time>
      </trkpt>
      <trkpt lat="52.230918" lon="5.671099">
        <ele>28.753947</ele>
        <time>2026-08-25T18:51:15.984Z</time>
      </trkpt>
      <trkpt lat="52.231114" lon="5.670551">
        <ele>28.670712</ele>
        <time>2026-08-25T18:51:23.579Z</time>
      </trkpt>
      <trkpt lat="52.233048" lon="5.665237">
        <ele>27.590306</ele>
        <time>2026-08-25T18:52:35.360Z</time>
      </trkpt>
      <trkpt lat="52.232388" lon="5.664361">
        <ele>27.308650</ele>
        <time>2026-08-25T18:52:49.365Z</time>
      </trkpt>
      <trkpt lat="52.232281" lon="5.664225">
        <ele>27.263747</ele>
        <time>2026-08-25T18:52:51.576Z</time>
      </trkpt>
      <trkpt lat="52.231480" lon="5.663279">
        <ele>26.673747</ele>
        <time>2026-08-25T18:53:07.136Z</time>
      </trkpt>
      <trkpt lat="52.231183" lon="5.662859">
        <ele>26.429723</ele>
        <time>2026-08-25T18:53:13.181Z</time>
      </trkpt>
      <trkpt lat="52.230845" lon="5.662240">
        <ele>26.116253</ele>
        <time>2026-08-25T18:53:20.846Z</time>
      </trkpt>
      <trkpt lat="52.230458" lon="5.661424">
        <ele>25.878307</ele>
        <time>2026-08-25T18:53:30.651Z</time>
      </trkpt>
      <trkpt lat="52.230400" lon="5.661130">
        <ele>25.807093</ele>
        <time>2026-08-25T18:53:33.794Z</time>
      </trkpt>
      <trkpt lat="52.230404" lon="5.660972">
        <ele>25.770633</ele>
        <time>2026-08-25T18:53:35.377Z</time>
      </trkpt>
      <trkpt lat="52.230135" lon="5.660641">
        <ele>25.643834</ele>
        <time>2026-08-25T18:53:42.950Z</time>
      </trkpt>
      <trkpt lat="52.229858" lon="5.660168">
        <ele>25.492950</ele>
        <time>2026-08-25T18:53:51.980Z</time>
      </trkpt>
      <trkpt lat="52.229682" lon="5.659798">
        <ele>25.440577</ele>
        <time>2026-08-25T18:53:58.498Z</time>
      </trkpt>
      <trkpt lat="52.229088" lon="5.658219">
        <ele>25.428285</ele>
        <time>2026-08-25T18:54:24.928Z</time>
      </trkpt>
      <trkpt lat="52.228997" lon="5.658074">
        <ele>25.426908</ele>
        <time>2026-08-25T18:54:27.831Z</time>
      </trkpt>
      <trkpt lat="52.229082" lon="5.657287">
        <ele>25.441223</ele>
        <time>2026-08-25T18:54:37.578Z</time>
      </trkpt>
      <trkpt lat="52.229160" lon="5.656851">
        <ele>25.490099</ele>
        <time>2026-08-25T18:54:43.252Z</time>
      </trkpt>
      <trkpt lat="52.229262" lon="5.656506">
        <ele>25.531322</ele>
        <time>2026-08-25T18:54:48.120Z</time>
      </trkpt>
      <trkpt lat="52.229273" lon="5.656487">
        <ele>25.534135</ele>
        <time>2026-08-25T18:54:48.457Z</time>
      </trkpt>
      <trkpt lat="52.229376" lon="5.656300">
        <ele>25.561197</ele>
        <time>2026-08-25T18:54:51.684Z</time>
      </trkpt>
      <trkpt lat="52.229428" lon="5.656319">
        <ele>25.570558</ele>
        <time>2026-08-25T18:54:52.776Z</time>
      </trkpt>
      <trkpt lat="52.229558" lon="5.656167">
        <ele>25.598650</ele>
        <time>2026-08-25T18:54:56.114Z</time>
      </trkpt>
      <trkpt lat="52.230390" lon="5.655103">
        <ele>25.777141</ele>
        <time>2026-08-25T18:55:18.101Z</time>
      </trkpt>
      <trkpt lat="52.230498" lon="5.655163">
        <ele>25.794027</ele>
        <time>2026-08-25T18:55:20.448Z</time>
      </trkpt>
      <trkpt lat="52.230540" lon="5.655055">
        <ele>25.805625</ele>
        <time>2026-08-25T18:55:22.063Z</time>
      </trkpt>
      <trkpt lat="52.230632" lon="5.654930">
        <ele>25.823341</ele>
        <time>2026-08-25T18:55:24.523Z</time>
      </trkpt>
      <trkpt lat="52.230850" lon="5.654662">
        <ele>25.863734</ele>
        <time>2026-08-25T18:55:33.876Z</time>
      </trkpt>
      <trkpt lat="52.230953" lon="5.654673">
        <ele>25.879012</ele>
        <time>2026-08-25T18:55:37.412Z</time>
      </trkpt>
      <trkpt lat="52.231180" lon="5.654665">
        <ele>25.912620</ele>
        <time>2026-08-25T18:55:45.213Z</time>
      </trkpt>
      <trkpt lat="52.231420" lon="5.654604">
        <ele>25.948572</ele>
        <time>2026-08-25T18:55:53.538Z</time>
      </trkpt>
      <trkpt lat="52.232330" lon="5.654023">
        <ele>26.300430</ele>
        <time>2026-08-25T18:56:27.280Z</time>
      </trkpt>
      <trkpt lat="52.233030" lon="5.653561">
        <ele>26.674666</ele>
        <time>2026-08-25T18:56:54.700Z</time>
      </trkpt>
      <trkpt lat="52.233196" lon="5.653475">
        <ele>26.760988</ele>
        <time>2026-08-25T18:57:01.168Z</time>
      </trkpt>
      <trkpt lat="52.233326" lon="5.653505">
        <ele>26.826064</ele>
        <time>2026-08-25T18:57:06.068Z</time>
      </trkpt>
      <trkpt lat="52.233555" lon="5.653436">
        <ele>26.916427</ele>
        <time>2026-08-25T18:57:14.707Z</time>
      </trkpt>
      <trkpt lat="52.234072" lon="5.653141">
        <ele>27.036729</ele>
        <time>2026-08-25T18:57:34.672Z</time>
      </trkpt>
      <trkpt lat="52.234210" lon="5.653062">
        <ele>27.068852</ele>
        <time>2026-08-25T18:57:39.885Z</time>
      </trkpt>
      <trkpt lat="52.234376" lon="5.653010">
        <ele>27.105981</ele>
        <time>2026-08-25T18:57:45.825Z</time>
      </trkpt>
      <trkpt lat="52.234511" lon="5.653842">
        <ele>27.221772</ele>
        <time>2026-08-25T18:58:03.490Z</time>
      </trkpt>
      <trkpt lat="52.234589" lon="5.654015">
        <ele>27.250673</ele>
        <time>2026-08-25T18:58:07.834Z</time>
      </trkpt>
      <trkpt lat="52.234647" lon="5.654036">
        <ele>27.263723</ele>
        <time>2026-08-25T18:58:09.816Z</time>
      </trkpt>
      <trkpt lat="52.235339" lon="5.653894">
        <ele>27.446106</ele>
        <time>2026-08-25T18:58:32.643Z</time>
      </trkpt>
      <trkpt lat="52.235363" lon="5.654966">
        <ele>27.624009</ele>
        <time>2026-08-25T18:58:55.028Z</time>
      </trkpt>
      <trkpt lat="52.235395" lon="5.655774">
        <ele>27.758291</ele>
        <time>2026-08-25T18:59:13.615Z</time>
      </trkpt>
      <trkpt lat="52.235403" lon="5.656054">
        <ele>27.885721</ele>
        <time>2026-08-25T18:59:20.236Z</time>
      </trkpt>
      <trkpt lat="52.235436" lon="5.657146">
        <ele>28.628924</ele>
        <time>2026-08-25T18:59:46.436Z</time>
      </trkpt>
      <trkpt lat="52.235445" lon="5.657334">
        <ele>28.757109</ele>
        <time>2026-08-25T18:59:51.044Z</time>
      </trkpt>
      <trkpt lat="52.235813" lon="5.657282">
        <ele>29.167102</ele>
        <time>2026-08-25T18:59:59.774Z</time>
      </trkpt>
      <trkpt lat="52.236759" lon="5.656961">
        <ele>30.090269</ele>
        <time>2026-08-25T19:00:20.614Z</time>
      </trkpt>
      <trkpt lat="52.237278" lon="5.656789">
        <ele>30.489150</ele>
        <time>2026-08-25T19:00:31.498Z</time>
      </trkpt>
      <trkpt lat="52.237409" lon="5.656747">
        <ele>30.589703</ele>
        <time>2026-08-25T19:00:34.215Z</time>
      </trkpt>
      <trkpt lat="52.237451" lon="5.656759">
        <ele>30.621818</ele>
        <time>2026-08-25T19:00:35.071Z</time>
      </trkpt>
      <trkpt lat="52.237539" lon="5.656767">
        <ele>30.688202</ele>
        <time>2026-08-25T19:00:36.834Z</time>
      </trkpt>
      <trkpt lat="52.237642" lon="5.656756">
        <ele>30.765948</ele>
        <time>2026-08-25T19:00:38.890Z</time>
      </trkpt>
      <trkpt lat="52.237733" lon="5.656690">
        <ele>30.840946</ele>
        <time>2026-08-25T19:00:40.857Z</time>
      </trkpt>
      <trkpt lat="52.237925" lon="5.656021">
        <ele>31.148805</ele>
        <time>2026-08-25T19:00:49.664Z</time>
      </trkpt>
      <trkpt lat="52.238196" lon="5.655389">
        <ele>31.278939</ele>
        <time>2026-08-25T19:00:58.653Z</time>
      </trkpt>
      <trkpt lat="52.238579" lon="5.654497">
        <ele>31.462690</ele>
        <time>2026-08-25T19:01:11.065Z</time>
      </trkpt>
      <trkpt lat="52.238999" lon="5.653369">
        <ele>31.584156</ele>
        <time>2026-08-25T19:01:25.088Z</time>
      </trkpt>
      <trkpt lat="52.239089" lon="5.653187">
        <ele>31.557201</ele>
        <time>2026-08-25T19:01:27.534Z</time>
      </trkpt>
      <trkpt lat="52.239169" lon="5.653091">
        <ele>31.538521</ele>
        <time>2026-08-25T19:01:29.210Z</time>
      </trkpt>
      <trkpt lat="52.239477" lon="5.652901">
        <ele>31.476570</ele>
        <time>2026-08-25T19:01:34.753Z</time>
      </trkpt>
      <trkpt lat="52.239565" lon="5.652735">
        <ele>31.451272</ele>
        <time>2026-08-25T19:01:36.989Z</time>
      </trkpt>
      <trkpt lat="52.239648" lon="5.652482">
        <ele>31.418201</ele>
        <time>2026-08-25T19:01:39.878Z</time>
      </trkpt>
      <trkpt lat="52.239816" lon="5.651750">
        <ele>31.328129</ele>
        <time>2026-08-25T19:01:47.641Z</time>
      </trkpt>
      <trkpt lat="52.239954" lon="5.651438">
        <ele>31.279201</ele>
        <time>2026-08-25T19:01:51.417Z</time>
      </trkpt>
      <trkpt lat="52.240556" lon="5.650542">
        <ele>30.892850</ele>
        <time>2026-08-25T19:02:04.296Z</time>
      </trkpt>
      <trkpt lat="52.241937" lon="5.648487">
        <ele>30.363039</ele>
        <time>2026-08-25T19:02:33.971Z</time>
      </trkpt>
      <trkpt lat="52.242339" lon="5.647985">
        <ele>30.323349</ele>
        <time>2026-08-25T19:02:43.098Z</time>
      </trkpt>
      <trkpt lat="52.242570" lon="5.647593">
        <ele>30.297222</ele>
        <time>2026-08-25T19:02:49.380Z</time>
      </trkpt>
      <trkpt lat="52.242655" lon="5.647360">
        <ele>30.365852</ele>
        <time>2026-08-25T19:02:52.571Z</time>
      </trkpt>
      <trkpt lat="52.242876" lon="5.646982">
        <ele>30.585390</ele>
        <time>2026-08-25T19:02:58.778Z</time>
      </trkpt>
      <trkpt lat="52.243011" lon="5.646889">
        <ele>30.685904</ele>
        <time>2026-08-25T19:03:01.650Z</time>
      </trkpt>
      <trkpt lat="52.243002" lon="5.646822">
        <ele>30.714717</ele>
        <time>2026-08-25T19:03:02.536Z</time>
      </trkpt>
      <trkpt lat="52.243021" lon="5.646747">
        <ele>30.748811</ele>
        <time>2026-08-25T19:03:03.622Z</time>
      </trkpt>
      <trkpt lat="52.243368" lon="5.646522">
        <ele>31.004934</ele>
        <time>2026-08-25T19:03:11.740Z</time>
      </trkpt>
      <trkpt lat="52.243666" lon="5.646360">
        <ele>31.220394</ele>
        <time>2026-08-25T19:03:18.646Z</time>
      </trkpt>
      <trkpt lat="52.243838" lon="5.646363">
        <ele>31.338395</ele>
        <time>2026-08-25T19:03:22.466Z</time>
      </trkpt>
      <trkpt lat="52.247109" lon="5.644494">
        <ele>34.649961</ele>
        <time>2026-08-25T19:04:44.305Z</time>
      </trkpt>
      <trkpt lat="52.247115" lon="5.644538">
        <ele>34.674474</ele>
        <time>2026-08-25T19:04:45.403Z</time>
      </trkpt>
      <trkpt lat="52.247236" lon="5.645187">
        <ele>35.029751</ele>
        <time>2026-08-25T19:05:01.713Z</time>
      </trkpt>
      <trkpt lat="52.247322" lon="5.645835">
        <ele>35.240431</ele>
        <time>2026-08-25T19:05:17.521Z</time>
      </trkpt>
      <trkpt lat="52.247532" lon="5.646822">
        <ele>35.572440</ele>
        <time>2026-08-25T19:05:42.290Z</time>
      </trkpt>
      <trkpt lat="52.247904" lon="5.649101">
        <ele>36.150511</ele>
        <time>2026-08-25T19:06:39.890Z</time>
      </trkpt>
      <trkpt lat="52.248030" lon="5.650016">
        <ele>36.313359</ele>
        <time>2026-08-25T19:07:01.663Z</time>
      </trkpt>
      <trkpt lat="52.247989" lon="5.652343">
        <ele>36.649557</ele>
        <time>2026-08-25T19:07:54.181Z</time>
      </trkpt>
      <trkpt lat="52.248109" lon="5.653199">
        <ele>36.762664</ele>
        <time>2026-08-25T19:08:14.818Z</time>
      </trkpt>
      <trkpt lat="52.248104" lon="5.653771">
        <ele>36.854812</ele>
        <time>2026-08-25T19:08:28.795Z</time>
      </trkpt>
      <trkpt lat="52.248679" lon="5.654563">
        <ele>37.779924</ele>
        <time>2026-08-25T19:08:59.628Z</time>
      </trkpt>
      <trkpt lat="52.248821" lon="5.654815">
        <ele>38.037823</ele>
        <time>2026-08-25T19:09:08.374Z</time>
      </trkpt>
      <trkpt lat="52.248995" lon="5.655271">
        <ele>38.442426</ele>
        <time>2026-08-25T19:09:22.735Z</time>
      </trkpt>
      <trkpt lat="52.249625" lon="5.655818">
        <ele>39.438913</ele>
        <time>2026-08-25T19:09:55.152Z</time>
      </trkpt>
      <trkpt lat="52.250639" lon="5.657436">
        <ele>41.935997</ele>
        <time>2026-08-25T19:11:00.784Z</time>
      </trkpt>
      <trkpt lat="52.251303" lon="5.658431">
        <ele>42.946646</ele>
        <time>2026-08-25T19:11:36.313Z</time>
      </trkpt>
      <trkpt lat="52.251704" lon="5.659148">
        <ele>43.532976</ele>
        <time>2026-08-25T19:11:59.068Z</time>
      </trkpt>
      <trkpt lat="52.252268" lon="5.660109">
        <ele>45.037479</ele>
        <time>2026-08-25T19:12:35.524Z</time>
      </trkpt>
      <trkpt lat="52.252589" lon="5.660602">
        <ele>46.342671</ele>
        <time>2026-08-25T19:12:58.355Z</time>
      </trkpt>
      <trkpt lat="52.253171" lon="5.661729">
        <ele>49.016503</ele>
        <time>2026-08-25T19:13:46.922Z</time>
      </trkpt>
      <trkpt lat="52.253628" lon="5.662307">
        <ele>50.237059</ele>
        <time>2026-08-25T19:14:16.073Z</time>
      </trkpt>
      <trkpt lat="52.253794" lon="5.662635">
        <ele>50.740422</ele>
        <time>2026-08-25T19:14:28.435Z</time>
      </trkpt>
      <trkpt lat="52.253992" lon="5.663170">
        <ele>51.479858</ele>
        <time>2026-08-25T19:14:45.639Z</time>
      </trkpt>
      <trkpt lat="52.254188" lon="5.663906">
        <ele>52.429178</ele>
        <time>2026-08-25T19:15:06.418Z</time>
      </trkpt>
      <trkpt lat="52.254318" lon="5.664542">
        <ele>53.011245</ele>
        <time>2026-08-25T19:15:23.067Z</time>
      </trkpt>
      <trkpt lat="52.254449" lon="5.665379">
        <ele>53.533897</ele>
        <time>2026-08-25T19:15:44.460Z</time>
      </trkpt>
      <trkpt lat="52.254612" lon="5.665921">
        <ele>53.899225</ele>
        <time>2026-08-25T19:15:59.895Z</time>
      </trkpt>
      <trkpt lat="52.254750" lon="5.666163">
        <ele>54.099309</ele>
        <time>2026-08-25T19:16:08.594Z</time>
      </trkpt>
      <trkpt lat="52.255189" lon="5.666308">
        <ele>54.541938</ele>
        <time>2026-08-25T19:16:26.271Z</time>
      </trkpt>
      <trkpt lat="52.255752" lon="5.666413">
        <ele>54.450925</ele>
        <time>2026-08-25T19:16:47.446Z</time>
      </trkpt>
      <trkpt lat="52.256053" lon="5.666660">
        <ele>54.378041</ele>
        <time>2026-08-25T19:16:59.067Z</time>
      </trkpt>
      <trkpt lat="52.255904" lon="5.667089">
        <ele>54.312710</ele>
        <time>2026-08-25T19:17:04.783Z</time>
      </trkpt>
      <trkpt lat="52.255416" lon="5.668268">
        <ele>53.878416</ele>
        <time>2026-08-25T19:17:19.576Z</time>
      </trkpt>
      <trkpt lat="52.255223" lon="5.668658">
        <ele>53.512297</ele>
        <time>2026-08-25T19:17:24.584Z</time>
      </trkpt>
      <trkpt lat="52.254525" lon="5.669874">
        <ele>52.295317</ele>
        <time>2026-08-25T19:17:41.934Z</time>
      </trkpt>
      <trkpt lat="52.254270" lon="5.670170">
        <ele>52.035503</ele>
        <time>2026-08-25T19:17:47.692Z</time>
      </trkpt>
      <trkpt lat="52.254033" lon="5.670373">
        <ele>52.040931</ele>
        <time>2026-08-25T19:17:52.785Z</time>
      </trkpt>
      <trkpt lat="52.253948" lon="5.670524">
        <ele>52.043478</ele>
        <time>2026-08-25T19:17:55.205Z</time>
      </trkpt>
      <trkpt lat="52.252948" lon="5.672683">
        <ele>52.085319</ele>
        <time>2026-08-25T19:18:30.416Z</time>
      </trkpt>
      <trkpt lat="52.252756" lon="5.672931">
        <ele>52.096113</ele>
        <time>2026-08-25T19:18:35.441Z</time>
      </trkpt>
      <trkpt lat="52.252488" lon="5.673850">
        <ele>52.123595</ele>
        <time>2026-08-25T19:18:47.588Z</time>
      </trkpt>
      <trkpt lat="52.252183" lon="5.674050">
        <ele>52.138089</ele>
        <time>2026-08-25T19:18:53.821Z</time>
      </trkpt>
      <trkpt lat="52.251813" lon="5.674445">
        <ele>52.352527</ele>
        <time>2026-08-25T19:19:02.411Z</time>
      </trkpt>
      <trkpt lat="52.251393" lon="5.675147">
        <ele>53.011436</ele>
        <time>2026-08-25T19:19:15.923Z</time>
      </trkpt>
      <trkpt lat="52.251187" lon="5.675516">
        <ele>53.346668</ele>
        <time>2026-08-25T19:19:23.881Z</time>
      </trkpt>
      <trkpt lat="52.251003" lon="5.675732">
        <ele>53.595126</ele>
        <time>2026-08-25T19:19:30.257Z</time>
      </trkpt>
      <trkpt lat="52.250169" lon="5.676711">
        <ele>54.559811</ele>
        <time>2026-08-25T19:19:59.903Z</time>
      </trkpt>
      <trkpt lat="52.249735" lon="5.677028">
        <ele>54.940736</ele>
        <time>2026-08-25T19:20:11.790Z</time>
      </trkpt>
      <trkpt lat="52.249023" lon="5.677328">
        <ele>55.529899</ele>
        <time>2026-08-25T19:20:26.518Z</time>
      </trkpt>
      <trkpt lat="52.248515" lon="5.677523">
        <ele>54.846486</ele>
        <time>2026-08-25T19:20:35.795Z</time>
      </trkpt>
      <trkpt lat="52.248537" lon="5.677487">
        <ele>54.800086</ele>
        <time>2026-08-25T19:20:36.327Z</time>
      </trkpt>
      <trkpt lat="52.247900" lon="5.677634">
        <ele>53.841543</ele>
        <time>2026-08-25T19:20:47.143Z</time>
      </trkpt>
      <trkpt lat="52.247696" lon="5.677763">
        <ele>53.515602</ele>
        <time>2026-08-25T19:20:50.711Z</time>
      </trkpt>
      <trkpt lat="52.246336" lon="5.678846">
        <ele>49.641873</ele>
        <time>2026-08-25T19:21:14.268Z</time>
      </trkpt>
      <trkpt lat="52.245887" lon="5.678980">
        <ele>48.282689</ele>
        <time>2026-08-25T19:21:20.989Z</time>
      </trkpt>
      <trkpt lat="52.245632" lon="5.679100">
        <ele>47.488650</ele>
        <time>2026-08-25T19:21:24.854Z</time>
      </trkpt>
      <trkpt lat="52.245530" lon="5.679175">
        <ele>47.118715</ele>
        <time>2026-08-25T19:21:26.474Z</time>
      </trkpt>
      <trkpt lat="52.245257" lon="5.679413">
        <ele>46.095300</ele>
        <time>2026-08-25T19:21:30.980Z</time>
      </trkpt>
      <trkpt lat="52.245044" lon="5.679449">
        <ele>45.387121</ele>
        <time>2026-08-25T19:21:34.094Z</time>
      </trkpt>
      <trkpt lat="52.244731" lon="5.679702">
        <ele>44.232155</ele>
        <time>2026-08-25T19:21:39.216Z</time>
      </trkpt>
      <trkpt lat="52.244141" lon="5.680067">
        <ele>42.145660</ele>
        <time>2026-08-25T19:21:48.698Z</time>
      </trkpt>
      <trkpt lat="52.243870" lon="5.680200">
        <ele>41.354791</ele>
        <time>2026-08-25T19:21:53.106Z</time>
      </trkpt>
      <trkpt lat="52.243479" lon="5.680510">
        <ele>40.482579</ele>
        <time>2026-08-25T19:22:00.006Z</time>
      </trkpt>
      <trkpt lat="52.243179" lon="5.680826">
        <ele>39.766198</ele>
        <time>2026-08-25T19:22:05.796Z</time>
      </trkpt>
      <trkpt lat="52.242873" lon="5.681075">
        <ele>39.080130</ele>
        <time>2026-08-25T19:22:11.401Z</time>
      </trkpt>
      <trkpt lat="52.242602" lon="5.681186">
        <ele>38.519457</ele>
        <time>2026-08-25T19:22:15.955Z</time>
      </trkpt>
      <trkpt lat="52.242153" lon="5.681294">
        <ele>37.727685</ele>
        <time>2026-08-25T19:22:23.413Z</time>
      </trkpt>
      <trkpt lat="52.241671" lon="5.681412">
        <ele>37.072565</ele>
        <time>2026-08-25T19:22:31.639Z</time>
      </trkpt>
      <trkpt lat="52.241341" lon="5.682037">
        <ele>36.393315</ele>
        <time>2026-08-25T19:22:40.335Z</time>
      </trkpt>
      <trkpt lat="52.241134" lon="5.682441">
        <ele>35.959739</ele>
        <time>2026-08-25T19:22:50.195Z</time>
      </trkpt>
      <trkpt lat="52.240710" lon="5.683447">
        <ele>35.227234</ele>
        <time>2026-08-25T19:23:13.275Z</time>
      </trkpt>
      <trkpt lat="52.240621" lon="5.683811">
        <ele>35.052022</ele>
        <time>2026-08-25T19:23:20.723Z</time>
      </trkpt>
      <trkpt lat="52.240593" lon="5.684028">
        <ele>34.952885</ele>
        <time>2026-08-25T19:23:24.931Z</time>
      </trkpt>
      <trkpt lat="52.240568" lon="5.684266">
        <ele>34.844937</ele>
        <time>2026-08-25T19:23:27.542Z</time>
      </trkpt>
      <trkpt lat="52.240454" lon="5.685863">
        <ele>34.292798</ele>
        <time>2026-08-25T19:23:45.882Z</time>
      </trkpt>
      <trkpt lat="52.240500" lon="5.688337">
        <ele>34.830211</ele>
        <time>2026-08-25T19:24:19.353Z</time>
      </trkpt>
      <trkpt lat="52.240480" lon="5.688670">
        <ele>34.901664</ele>
        <time>2026-08-25T19:24:24.052Z</time>
      </trkpt>
      <trkpt lat="52.240493" lon="5.689188">
        <ele>35.009197</ele>
        <time>2026-08-25T19:24:31.229Z</time>
      </trkpt>
      <trkpt lat="52.240482" lon="5.689774">
        <ele>35.130802</ele>
        <time>2026-08-25T19:24:39.137Z</time>
      </trkpt>
      <trkpt lat="52.240400" lon="5.690536">
        <ele>35.291277</ele>
        <time>2026-08-25T19:24:49.243Z</time>
      </trkpt>
      <trkpt lat="52.240009" lon="5.692618">
        <ele>35.758896</ele>
        <time>2026-08-25T19:25:16.496Z</time>
      </trkpt>
      <trkpt lat="52.239910" lon="5.693018">
        <ele>35.853914</ele>
        <time>2026-08-25T19:25:22.111Z</time>
      </trkpt>
      <trkpt lat="52.239888" lon="5.693105">
        <ele>35.874644</ele>
        <time>2026-08-25T19:25:23.342Z</time>
      </trkpt>
      <trkpt lat="52.239824" lon="5.693490">
        <ele>35.962503</ele>
        <time>2026-08-25T19:25:28.632Z</time>
      </trkpt>
      <trkpt lat="52.240059" lon="5.693177">
        <ele>36.071569</ele>
        <time>2026-08-25T19:25:40.540Z</time>
      </trkpt>
      <trkpt lat="52.240134" lon="5.693103">
        <ele>36.103084</ele>
        <time>2026-08-25T19:25:44.027Z</time>
      </trkpt>
      <trkpt lat="52.240428" lon="5.692818">
        <ele>36.446186</ele>
        <time>2026-08-25T19:25:57.674Z</time>
      </trkpt>
      <trkpt lat="52.240642" lon="5.692677">
        <ele>36.723907</ele>
        <time>2026-08-25T19:26:07.096Z</time>
      </trkpt>
      <trkpt lat="52.240687" lon="5.692650">
        <ele>36.781605</ele>
        <time>2026-08-25T19:26:09.097Z</time>
      </trkpt>
      <trkpt lat="52.241601" lon="5.692266">
        <ele>37.917422</ele>
        <time>2026-08-25T19:26:49.439Z</time>
      </trkpt>
      <trkpt lat="52.242431" lon="5.691838">
        <ele>39.348832</ele>
        <time>2026-08-25T19:27:28.807Z</time>
      </trkpt>
      <trkpt lat="52.243961" lon="5.691009">
        <ele>42.312215</ele>
        <time>2026-08-25T19:28:43.304Z</time>
      </trkpt>
      <trkpt lat="52.244205" lon="5.690864">
        <ele>42.739788</ele>
        <time>2026-08-25T19:28:54.860Z</time>
      </trkpt>
      <trkpt lat="52.245583" lon="5.690106">
        <ele>45.088857</ele>
        <time>2026-08-25T19:29:58.403Z</time>
      </trkpt>
      <trkpt lat="52.247756" lon="5.688873">
        <ele>48.851163</ele>
        <time>2026-08-25T19:31:38.965Z</time>
      </trkpt>
      <trkpt lat="52.251455" lon="5.686817">
        <ele>55.675982</ele>
        <time>2026-08-25T19:34:40.078Z</time>
      </trkpt>
      <trkpt lat="52.253314" lon="5.685755">
        <ele>56.457447</ele>
        <time>2026-08-25T19:35:54.160Z</time>
      </trkpt>
      <trkpt lat="52.253782" lon="5.685498">
        <ele>56.406958</ele>
        <time>2026-08-25T19:36:11.740Z</time>
      </trkpt>
      <trkpt lat="52.256038" lon="5.684158">
        <ele>55.188115</ele>
        <time>2026-08-25T19:37:35.724Z</time>
      </trkpt>
      <trkpt lat="52.259113" lon="5.682503">
        <ele>56.834480</ele>
        <time>2026-08-25T19:39:45.225Z</time>
      </trkpt>
      <trkpt lat="52.259577" lon="5.682318">
        <ele>57.268016</ele>
        <time>2026-08-25T19:40:05.542Z</time>
      </trkpt>
      <trkpt lat="52.259892" lon="5.682239">
        <ele>57.557292</ele>
        <time>2026-08-25T19:40:19.004Z</time>
      </trkpt>
      <trkpt lat="52.260526" lon="5.681826">
        <ele>58.176835</ele>
        <time>2026-08-25T19:40:47.425Z</time>
      </trkpt>
      <trkpt lat="52.261472" lon="5.681352">
        <ele>58.148403</ele>
        <time>2026-08-25T19:41:24.992Z</time>
      </trkpt>
      <trkpt lat="52.261487" lon="5.681321">
        <ele>58.144685</ele>
        <time>2026-08-25T19:41:25.867Z</time>
      </trkpt>
      <trkpt lat="52.261542" lon="5.681209">
        <ele>58.131175</ele>
        <time>2026-08-25T19:41:29.029Z</time>
      </trkpt>
      <trkpt lat="52.261244" lon="5.679882">
        <ele>57.981764</ele>
        <time>2026-08-25T19:41:59.551Z</time>
      </trkpt>
      <trkpt lat="52.262655" lon="5.679567">
        <ele>57.309137</ele>
        <time>2026-08-25T19:42:49.760Z</time>
      </trkpt>
      <trkpt lat="52.262825" lon="5.679621">
        <ele>57.227340</ele>
        <time>2026-08-25T19:42:56.146Z</time>
      </trkpt>
      <trkpt lat="52.264142" lon="5.679275">
        <ele>57.280427</ele>
        <time>2026-08-25T19:43:47.376Z</time>
      </trkpt>
      <trkpt lat="52.264468" lon="5.679186">
        <ele>57.314993</ele>
        <time>2026-08-25T19:44:00.127Z</time>
      </trkpt>
      <trkpt lat="52.264730" lon="5.679156">
        <ele>57.342461</ele>
        <time>2026-08-25T19:44:10.108Z</time>
      </trkpt>
      <trkpt lat="52.264855" lon="5.680623">
        <ele>56.219120</ele>
        <time>2026-08-25T19:44:24.007Z</time>
      </trkpt>
      <trkpt lat="52.264796" lon="5.680652">
        <ele>56.140771</ele>
        <time>2026-08-25T19:44:24.969Z</time>
      </trkpt>
      <trkpt lat="52.264783" lon="5.680691">
        <ele>56.106208</ele>
        <time>2026-08-25T19:44:25.385Z</time>
      </trkpt>
      <trkpt lat="52.264806" lon="5.680866">
        <ele>55.966905</ele>
        <time>2026-08-25T19:44:27.065Z</time>
      </trkpt>
      <trkpt lat="52.264830" lon="5.681021">
        <ele>55.842472</ele>
        <time>2026-08-25T19:44:28.560Z</time>
      </trkpt>
      <trkpt lat="52.264956" lon="5.682741">
        <ele>54.218495</ele>
        <time>2026-08-25T19:44:44.473Z</time>
      </trkpt>
      <trkpt lat="52.264968" lon="5.683144">
        <ele>53.750695</ele>
        <time>2026-08-25T19:44:48.225Z</time>
      </trkpt>
      <trkpt lat="52.265152" lon="5.684898">
        <ele>51.687412</ele>
        <time>2026-08-25T19:45:05.192Z</time>
      </trkpt>
      <trkpt lat="52.265253" lon="5.685704">
        <ele>50.236702</ele>
        <time>2026-08-25T19:45:12.869Z</time>
      </trkpt>
      <trkpt lat="52.265316" lon="5.686226">
        <ele>49.285412</ele>
        <time>2026-08-25T19:45:17.582Z</time>
      </trkpt>
      <trkpt lat="52.265330" lon="5.686687">
        <ele>48.460150</ele>
        <time>2026-08-25T19:45:21.530Z</time>
      </trkpt>
      <trkpt lat="52.265420" lon="5.687209">
        <ele>47.490507</ele>
        <time>2026-08-25T19:45:26.097Z</time>
      </trkpt>
      <trkpt lat="52.265501" lon="5.688079">
        <ele>45.959086</ele>
        <time>2026-08-25T19:45:33.516Z</time>
      </trkpt>
      <trkpt lat="52.265607" lon="5.688886">
        <ele>44.612943</ele>
        <time>2026-08-25T19:45:40.615Z</time>
      </trkpt>
      <trkpt lat="52.265929" lon="5.691744">
        <ele>41.182301</ele>
        <time>2026-08-25T19:46:07.156Z</time>
      </trkpt>
      <trkpt lat="52.266245" lon="5.693132">
        <ele>40.595818</ele>
        <time>2026-08-25T19:46:25.095Z</time>
      </trkpt>
      <trkpt lat="52.266395" lon="5.693384">
        <ele>40.456602</ele>
        <time>2026-08-25T19:46:29.941Z</time>
      </trkpt>
      <trkpt lat="52.266441" lon="5.693524">
        <ele>40.357974</ele>
        <time>2026-08-25T19:46:32.124Z</time>
      </trkpt>
      <trkpt lat="52.266450" lon="5.693665">
        <ele>40.256768</ele>
        <time>2026-08-25T19:46:34.068Z</time>
      </trkpt>
      <trkpt lat="52.266560" lon="5.694047">
        <ele>39.955379</ele>
        <time>2026-08-25T19:46:39.347Z</time>
      </trkpt>
      <trkpt lat="52.266634" lon="5.694490">
        <ele>39.627555</ele>
        <time>2026-08-25T19:46:44.397Z</time>
      </trkpt>
      <trkpt lat="52.266765" lon="5.694834">
        <ele>39.338312</ele>
        <time>2026-08-25T19:46:48.525Z</time>
      </trkpt>
      <trkpt lat="52.266939" lon="5.695044">
        <ele>39.085976</ele>
        <time>2026-08-25T19:46:51.904Z</time>
      </trkpt>
      <trkpt lat="52.267015" lon="5.695211">
        <ele>38.937406</ele>
        <time>2026-08-25T19:46:53.845Z</time>
      </trkpt>
      <trkpt lat="52.267064" lon="5.695416">
        <ele>38.780292</ele>
        <time>2026-08-25T19:46:55.850Z</time>
      </trkpt>
      <trkpt lat="52.267091" lon="5.695681">
        <ele>38.588508</ele>
        <time>2026-08-25T19:46:58.274Z</time>
      </trkpt>
      <trkpt lat="52.267215" lon="5.696457">
        <ele>37.486038</ele>
        <time>2026-08-25T19:47:05.336Z</time>
      </trkpt>
      <trkpt lat="52.267289" lon="5.697163">
        <ele>36.138474</ele>
        <time>2026-08-25T19:47:11.483Z</time>
      </trkpt>
      <trkpt lat="52.267280" lon="5.697774">
        <ele>34.988646</ele>
        <time>2026-08-25T19:47:16.717Z</time>
      </trkpt>
      <trkpt lat="52.267234" lon="5.698106">
        <ele>34.348234</ele>
        <time>2026-08-25T19:47:19.657Z</time>
      </trkpt>
      <trkpt lat="52.267295" lon="5.698570">
        <ele>33.455379</ele>
        <time>2026-08-25T19:47:23.793Z</time>
      </trkpt>
      <trkpt lat="52.267314" lon="5.699391">
        <ele>32.042232</ele>
        <time>2026-08-25T19:47:30.919Z</time>
      </trkpt>
      <trkpt lat="52.267463" lon="5.701365">
        <ele>28.850790</ele>
        <time>2026-08-25T19:47:48.392Z</time>
      </trkpt>
      <trkpt lat="52.267517" lon="5.701597">
        <ele>28.452512</ele>
        <time>2026-08-25T19:47:50.681Z</time>
      </trkpt>
      <trkpt lat="52.267537" lon="5.701684">
        <ele>28.303389</ele>
        <time>2026-08-25T19:47:51.558Z</time>
      </trkpt>
      <trkpt lat="52.267582" lon="5.702570">
        <ele>27.614777</ele>
        <time>2026-08-25T19:48:00.168Z</time>
      </trkpt>
      <trkpt lat="52.267606" lon="5.704006">
        <ele>26.706460</ele>
        <time>2026-08-25T19:48:14.946Z</time>
      </trkpt>
      <trkpt lat="52.267557" lon="5.704043">
        <ele>26.650688</ele>
        <time>2026-08-25T19:48:15.887Z</time>
      </trkpt>
      <trkpt lat="52.267604" lon="5.704183">
        <ele>26.549722</ele>
        <time>2026-08-25T19:48:18.026Z</time>
      </trkpt>
      <trkpt lat="52.267671" lon="5.704178">
        <ele>26.480425</ele>
        <time>2026-08-25T19:48:19.099Z</time>
      </trkpt>
      <trkpt lat="52.267797" lon="5.704173">
        <ele>26.350202</ele>
        <time>2026-08-25T19:48:21.137Z</time>
      </trkpt>
      <trkpt lat="52.268196" lon="5.704185">
        <ele>26.155811</ele>
        <time>2026-08-25T19:48:27.491Z</time>
      </trkpt>
      <trkpt lat="52.268334" lon="5.704189">
        <ele>26.117349</ele>
        <time>2026-08-25T19:48:29.669Z</time>
      </trkpt>
      <trkpt lat="52.268594" lon="5.704197">
        <ele>26.044881</ele>
        <time>2026-08-25T19:48:33.773Z</time>
      </trkpt>
      <trkpt lat="52.269112" lon="5.704250">
        <ele>25.900247</ele>
        <time>2026-08-25T19:48:42.152Z</time>
      </trkpt>
      <trkpt lat="52.269532" lon="5.704305">
        <ele>25.782831</ele>
        <time>2026-08-25T19:48:49.331Z</time>
      </trkpt>
      <trkpt lat="52.269734" lon="5.704390">
        <ele>25.734808</ele>
        <time>2026-08-25T19:48:53.031Z</time>
      </trkpt>
      <trkpt lat="52.269890" lon="5.704251">
        <ele>25.733558</ele>
        <time>2026-08-25T19:48:56.591Z</time>
      </trkpt>
      <trkpt lat="52.270027" lon="5.704131">
        <ele>25.732464</ele>
        <time>2026-08-25T19:48:59.679Z</time>
      </trkpt>
      <trkpt lat="52.270167" lon="5.704009">
        <ele>25.731348</ele>
        <time>2026-08-25T19:49:02.800Z</time>
      </trkpt>
      <trkpt lat="52.270356" lon="5.703843">
        <ele>25.729839</ele>
        <time>2026-08-25T19:49:06.960Z</time>
      </trkpt>
      <trkpt lat="52.270567" lon="5.703706">
        <ele>25.728242</ele>
        <time>2026-08-25T19:49:11.381Z</time>
      </trkpt>
      <trkpt lat="52.270868" lon="5.703602">
        <ele>25.726077</ele>
        <time>2026-08-25T19:49:17.245Z</time>
      </trkpt>
      <trkpt lat="52.271355" lon="5.703551">
        <ele>25.722644</ele>
        <time>2026-08-25T19:49:26.313Z</time>
      </trkpt>
      <trkpt lat="52.273330" lon="5.703494">
        <ele>25.605215</ele>
        <time>2026-08-25T19:50:05.204Z</time>
      </trkpt>
      <trkpt lat="52.273548" lon="5.703622">
        <ele>25.591504</ele>
        <time>2026-08-25T19:50:09.956Z</time>
      </trkpt>
      <trkpt lat="52.273584" lon="5.703647">
        <ele>25.589189</ele>
        <time>2026-08-25T19:50:10.754Z</time>
      </trkpt>
      <trkpt lat="52.273785" lon="5.703719">
        <ele>25.577009</ele>
        <time>2026-08-25T19:50:14.803Z</time>
      </trkpt>
      <trkpt lat="52.275147" lon="5.703984">
        <ele>25.494601</ele>
        <time>2026-08-25T19:50:40.851Z</time>
      </trkpt>
      <trkpt lat="52.275962" lon="5.704092">
        <ele>25.441047</ele>
        <time>2026-08-25T19:50:56.135Z</time>
      </trkpt>
      <trkpt lat="52.276270" lon="5.704046">
        <ele>25.420790</ele>
        <time>2026-08-25T19:51:02.046Z</time>
      </trkpt>
      <trkpt lat="52.276593" lon="5.703891">
        <ele>25.398742</ele>
        <time>2026-08-25T19:51:08.516Z</time>
      </trkpt>
      <trkpt lat="52.277205" lon="5.703475">
        <ele>25.256476</ele>
        <time>2026-08-25T19:51:21.325Z</time>
      </trkpt>
      <trkpt lat="52.278269" lon="5.703103">
        <ele>24.978980</ele>
        <time>2026-08-25T19:51:41.407Z</time>
      </trkpt>
      <trkpt lat="52.278528" lon="5.703127">
        <ele>24.894323</ele>
        <time>2026-08-25T19:51:46.016Z</time>
      </trkpt>
      <trkpt lat="52.278665" lon="5.703162">
        <ele>24.822522</ele>
        <time>2026-08-25T19:51:48.454Z</time>
      </trkpt>
      <trkpt lat="52.278879" lon="5.703216">
        <ele>24.710397</ele>
        <time>2026-08-25T19:51:52.199Z</time>
      </trkpt>
      <trkpt lat="52.279392" lon="5.703388">
        <ele>24.439229</ele>
        <time>2026-08-25T19:52:01.185Z</time>
      </trkpt>
      <trkpt lat="52.280306" lon="5.703646">
        <ele>23.993000</ele>
        <time>2026-08-25T19:52:17.989Z</time>
      </trkpt>
      <trkpt lat="52.280358" lon="5.703350">
        <ele>23.977539</ele>
        <time>2026-08-25T19:52:21.497Z</time>
      </trkpt>
      <trkpt lat="52.280409" lon="5.703148">
        <ele>23.966567</ele>
        <time>2026-08-25T19:52:23.963Z</time>
      </trkpt>
      <trkpt lat="52.280466" lon="5.703036">
        <ele>23.959253</ele>
        <time>2026-08-25T19:52:25.641Z</time>
      </trkpt>
      <trkpt lat="52.280702" lon="5.702831">
        <ele>23.937321</ele>
        <time>2026-08-25T19:52:30.687Z</time>
      </trkpt>
      <trkpt lat="52.280762" lon="5.702735">
        <ele>23.930431</ele>
        <time>2026-08-25T19:52:32.266Z</time>
      </trkpt>
      <trkpt lat="52.280779" lon="5.702654">
        <ele>23.926132</ele>
        <time>2026-08-25T19:52:33.307Z</time>
      </trkpt>
      <trkpt lat="52.280949" lon="5.701329">
        <ele>23.858163</ele>
        <time>2026-08-25T19:52:49.326Z</time>
      </trkpt>
      <trkpt lat="52.281010" lon="5.700597">
        <ele>23.825794</ele>
        <time>2026-08-25T19:52:57.922Z</time>
      </trkpt>
      <trkpt lat="52.281158" lon="5.700046">
        <ele>23.800221</ele>
        <time>2026-08-25T19:53:05.060Z</time>
      </trkpt>
      <trkpt lat="52.281226" lon="5.699651">
        <ele>23.782783</ele>
        <time>2026-08-25T19:53:09.863Z</time>
      </trkpt>
      <trkpt lat="52.281213" lon="5.698920">
        <ele>23.751706</ele>
        <time>2026-08-25T19:53:18.325Z</time>
      </trkpt>
      <trkpt lat="52.281350" lon="5.698798">
        <ele>23.740869</ele>
        <time>2026-08-25T19:53:21.251Z</time>
      </trkpt>
      <trkpt lat="52.281401" lon="5.698748">
        <ele>23.736738</ele>
        <time>2026-08-25T19:53:22.361Z</time>
      </trkpt>
      <trkpt lat="52.281514" lon="5.698586">
        <ele>23.725156</ele>
        <time>2026-08-25T19:53:24.855Z</time>
      </trkpt>
      <trkpt lat="52.281590" lon="5.698406">
        <ele>23.697497</ele>
        <time>2026-08-25T19:53:27.084Z</time>
      </trkpt>
      <trkpt lat="52.281805" lon="5.697178">
        <ele>23.535962</ele>
        <time>2026-08-25T19:53:39.983Z</time>
      </trkpt>
      <trkpt lat="52.282015" lon="5.696293">
        <ele>23.415916</ele>
        <time>2026-08-25T19:53:49.529Z</time>
      </trkpt>
      <trkpt lat="52.282205" lon="5.695661">
        <ele>23.336458</ele>
        <time>2026-08-25T19:53:56.641Z</time>
      </trkpt>
      <trkpt lat="52.282363" lon="5.695276">
        <ele>23.297780</ele>
        <time>2026-08-25T19:54:01.328Z</time>
      </trkpt>
      <trkpt lat="52.282605" lon="5.694561">
        <ele>23.229608</ele>
        <time>2026-08-25T19:54:09.527Z</time>
      </trkpt>
      <trkpt lat="52.282779" lon="5.693931">
        <ele>23.171941</ele>
        <time>2026-08-25T19:54:16.537Z</time>
      </trkpt>
      <trkpt lat="52.283022" lon="5.693314">
        <ele>23.110721</ele>
        <time>2026-08-25T19:54:24.125Z</time>
      </trkpt>
      <trkpt lat="52.283422" lon="5.692430">
        <ele>23.407948</ele>
        <time>2026-08-25T19:54:36.366Z</time>
      </trkpt>
      <trkpt lat="52.284054" lon="5.690857">
        <ele>23.931735</ele>
        <time>2026-08-25T19:54:59.084Z</time>
      </trkpt>
      <trkpt lat="52.284466" lon="5.689961">
        <ele>24.543395</ele>
        <time>2026-08-25T19:55:13.092Z</time>
      </trkpt>
      <trkpt lat="52.284925" lon="5.689201">
        <ele>25.126176</ele>
        <time>2026-08-25T19:55:26.890Z</time>
      </trkpt>
      <trkpt lat="52.286054" lon="5.686592">
        <ele>27.773932</ele>
        <time>2026-08-25T19:56:11.766Z</time>
      </trkpt>
      <trkpt lat="52.286355" lon="5.685891">
        <ele>28.709807</ele>
        <time>2026-08-25T19:56:25.593Z</time>
      </trkpt>
      <trkpt lat="52.286781" lon="5.685154">
        <ele>30.037592</ele>
        <time>2026-08-25T19:56:42.811Z</time>
      </trkpt>
      <trkpt lat="52.286987" lon="5.684862">
        <ele>30.621259</ele>
        <time>2026-08-25T19:56:50.555Z</time>
      </trkpt>
      <trkpt lat="52.287728" lon="5.684008">
        <ele>32.216480</ele>
        <time>2026-08-25T19:57:14.886Z</time>
      </trkpt>
      <trkpt lat="52.288215" lon="5.683553">
        <ele>32.609079</ele>
        <time>2026-08-25T19:57:27.759Z</time>
      </trkpt>
      <trkpt lat="52.288250" lon="5.683181">
        <ele>32.770218</ele>
        <time>2026-08-25T19:57:32.523Z</time>
      </trkpt>
      <trkpt lat="52.288699" lon="5.680989">
        <ele>32.739004</ele>
        <time>2026-08-25T19:57:58.429Z</time>
      </trkpt>
      <trkpt lat="52.288912" lon="5.679962">
        <ele>32.155584</ele>
        <time>2026-08-25T19:58:09.401Z</time>
      </trkpt>
      <trkpt lat="52.289147" lon="5.678831">
        <ele>31.460441</ele>
        <time>2026-08-25T19:58:21.407Z</time>
      </trkpt>
      <trkpt lat="52.289439" lon="5.677424">
        <ele>30.463590</ele>
        <time>2026-08-25T19:58:36.666Z</time>
      </trkpt>
      <trkpt lat="52.289837" lon="5.675530">
        <ele>29.093784</ele>
        <time>2026-08-25T19:58:57.163Z</time>
      </trkpt>
      <trkpt lat="52.290120" lon="5.674201">
        <ele>28.110578</ele>
        <time>2026-08-25T19:59:11.277Z</time>
      </trkpt>
      <trkpt lat="52.290495" lon="5.672339">
        <ele>27.046070</ele>
        <time>2026-08-25T19:59:31.625Z</time>
      </trkpt>
      <trkpt lat="52.290713" lon="5.671288">
        <ele>26.517866</ele>
        <time>2026-08-25T19:59:43.664Z</time>
      </trkpt>
      <trkpt lat="52.290751" lon="5.671106">
        <ele>26.426335</ele>
        <time>2026-08-25T19:59:45.746Z</time>
      </trkpt>
      <trkpt lat="52.290914" lon="5.670319">
        <ele>26.072339</ele>
        <time>2026-08-25T19:59:54.698Z</time>
      </trkpt>
      <trkpt lat="52.291328" lon="5.668323">
        <ele>25.224614</ele>
        <time>2026-08-25T20:00:17.109Z</time>
      </trkpt>
      <trkpt lat="52.291611" lon="5.666964">
        <ele>25.174082</ele>
        <time>2026-08-25T20:00:32.971Z</time>
      </trkpt>
      <trkpt lat="52.291943" lon="5.665490">
        <ele>25.252694</ele>
        <time>2026-08-25T20:00:53.289Z</time>
      </trkpt>
      <trkpt lat="52.291956" lon="5.665443">
        <ele>25.255276</ele>
        <time>2026-08-25T20:00:53.982Z</time>
      </trkpt>
      <trkpt lat="52.291968" lon="5.665357">
        <ele>25.259690</ele>
        <time>2026-08-25T20:00:55.135Z</time>
      </trkpt>
      <trkpt lat="52.292183" lon="5.664248">
        <ele>25.336543</ele>
        <time>2026-08-25T20:01:10.176Z</time>
      </trkpt>
      <trkpt lat="52.292342" lon="5.663362">
        <ele>25.398416</ele>
        <time>2026-08-25T20:01:21.487Z</time>
      </trkpt>
      <trkpt lat="52.292355" lon="5.663198">
        <ele>25.409497</ele>
        <time>2026-08-25T20:01:23.394Z</time>
      </trkpt>
      <trkpt lat="52.292329" lon="5.663027">
        <ele>25.421305</ele>
        <time>2026-08-25T20:01:25.394Z</time>
      </trkpt>
      <trkpt lat="52.291600" lon="5.660666">
        <ele>25.146290</ele>
        <time>2026-08-25T20:01:54.770Z</time>
      </trkpt>
      <trkpt lat="52.291572" lon="5.660561">
        <ele>25.128907</ele>
        <time>2026-08-25T20:01:56.098Z</time>
      </trkpt>
      <trkpt lat="52.291438" lon="5.660173">
        <ele>25.061288</ele>
        <time>2026-08-25T20:02:01.343Z</time>
      </trkpt>
      <trkpt lat="52.290451" lon="5.657198">
        <ele>25.011178</ele>
        <time>2026-08-25T20:02:41.014Z</time>
      </trkpt>
      <trkpt lat="52.290015" lon="5.656033">
        <ele>25.128139</ele>
        <time>2026-08-25T20:02:57.128Z</time>
      </trkpt>
      <trkpt lat="52.289961" lon="5.655811">
        <ele>25.148599</ele>
        <time>2026-08-25T20:03:00.071Z</time>
      </trkpt>
      <trkpt lat="52.289960" lon="5.655329">
        <ele>25.189876</ele>
        <time>2026-08-25T20:03:06.043Z</time>
      </trkpt>
      <trkpt lat="52.289992" lon="5.654318">
        <ele>25.302682</ele>
        <time>2026-08-25T20:03:18.867Z</time>
      </trkpt>
      <trkpt lat="52.290164" lon="5.649807">
        <ele>25.902517</ele>
        <time>2026-08-25T20:04:15.131Z</time>
      </trkpt>
      <trkpt lat="52.290272" lon="5.649276">
        <ele>25.942410</ele>
        <time>2026-08-25T20:04:21.694Z</time>
      </trkpt>
      <trkpt lat="52.290612" lon="5.648219">
        <ele>25.789377</ele>
        <time>2026-08-25T20:04:35.327Z</time>
      </trkpt>
      <trkpt lat="52.291149" lon="5.646507">
        <ele>25.254071</ele>
        <time>2026-08-25T20:04:56.597Z</time>
      </trkpt>
      <trkpt lat="52.291228" lon="5.646253">
        <ele>25.174790</ele>
        <time>2026-08-25T20:04:59.569Z</time>
      </trkpt>
      <trkpt lat="52.291343" lon="5.645883">
        <ele>24.987083</ele>
        <time>2026-08-25T20:05:03.812Z</time>
      </trkpt>
      <trkpt lat="52.291308" lon="5.645714">
        <ele>24.902107</ele>
        <time>2026-08-25T20:05:05.623Z</time>
      </trkpt>
      <trkpt lat="52.291275" lon="5.645680">
        <ele>24.871736</ele>
        <time>2026-08-25T20:05:06.427Z</time>
      </trkpt>
      <trkpt lat="52.291210" lon="5.645461">
        <ele>24.755805</ele>
        <time>2026-08-25T20:05:09.458Z</time>
      </trkpt>
      <trkpt lat="52.291040" lon="5.644831">
        <ele>24.427863</ele>
        <time>2026-08-25T20:05:18.090Z</time>
      </trkpt>
      <trkpt lat="52.290980" lon="5.644581">
        <ele>24.299961</ele>
        <time>2026-08-25T20:05:21.513Z</time>
      </trkpt>
      <trkpt lat="52.290905" lon="5.644277">
        <ele>24.143845</ele>
        <time>2026-08-25T20:05:25.731Z</time>
      </trkpt>
      <trkpt lat="52.290784" lon="5.643783">
        <ele>23.890411</ele>
        <time>2026-08-25T20:05:32.665Z</time>
      </trkpt>
      <trkpt lat="52.290560" lon="5.643744">
        <ele>23.804523</ele>
        <time>2026-08-25T20:05:36.213Z</time>
      </trkpt>
      <trkpt lat="52.290458" lon="5.643824">
        <ele>23.890484</ele>
        <time>2026-08-25T20:05:38.280Z</time>
      </trkpt>
      <trkpt lat="52.289835" lon="5.644818">
        <ele>24.551935</ele>
        <time>2026-08-25T20:05:57.472Z</time>
      </trkpt>
      <trkpt lat="52.289651" lon="5.645200">
        <ele>24.777919</ele>
        <time>2026-08-25T20:06:04.933Z</time>
      </trkpt>
      <trkpt lat="52.289514" lon="5.645319">
        <ele>24.895798</ele>
        <time>2026-08-25T20:06:08.880Z</time>
      </trkpt>
      <trkpt lat="52.289122" lon="5.646004">
        <ele>25.386315</ele>
        <time>2026-08-25T20:06:23.357Z</time>
      </trkpt>
      <trkpt lat="52.288793" lon="5.646477">
        <ele>25.807872</ele>
        <time>2026-08-25T20:06:34.180Z</time>
      </trkpt>
      <trkpt lat="52.288192" lon="5.647454">
        <ele>26.623384</ele>
        <time>2026-08-25T20:06:53.243Z</time>
      </trkpt>
      <trkpt lat="52.288027" lon="5.647970">
        <ele>26.909985</ele>
        <time>2026-08-25T20:07:00.752Z</time>
      </trkpt>
      <trkpt lat="52.287917" lon="5.648104">
        <ele>26.973697</ele>
        <time>2026-08-25T20:07:03.607Z</time>
      </trkpt>
      <trkpt lat="52.287767" lon="5.648176">
        <ele>27.046304</ele>
        <time>2026-08-25T20:07:06.866Z</time>
      </trkpt>
      <trkpt lat="52.287663" lon="5.648303">
        <ele>27.106593</ele>
        <time>2026-08-25T20:07:09.554Z</time>
      </trkpt>
      <trkpt lat="52.286280" lon="5.650435">
        <ele>27.895477</ele>
        <time>2026-08-25T20:07:49.183Z</time>
      </trkpt>
      <trkpt lat="52.285317" lon="5.652005">
        <ele>28.329959</ele>
        <time>2026-08-25T20:08:16.268Z</time>
      </trkpt>
      <trkpt lat="52.285235" lon="5.652174">
        <ele>28.373843</ele>
        <time>2026-08-25T20:08:18.902Z</time>
      </trkpt>
      <trkpt lat="52.285150" lon="5.652438">
        <ele>28.434535</ele>
        <time>2026-08-25T20:08:22.573Z</time>
      </trkpt>
      <trkpt lat="52.285058" lon="5.652563">
        <ele>28.474319</ele>
        <time>2026-08-25T20:08:24.986Z</time>
      </trkpt>
      <trkpt lat="52.284894" lon="5.652639">
        <ele>28.531009</ele>
        <time>2026-08-25T20:08:28.459Z</time>
      </trkpt>
      <trkpt lat="52.284710" lon="5.652862">
        <ele>28.607184</ele>
        <time>2026-08-25T20:08:33.183Z</time>
      </trkpt>
      <trkpt lat="52.284498" lon="5.653382">
        <ele>28.734314</ele>
        <time>2026-08-25T20:08:41.147Z</time>
      </trkpt>
      <trkpt lat="52.284246" lon="5.653683">
        <ele>28.838109</ele>
        <time>2026-08-25T20:08:47.714Z</time>
      </trkpt>
      <trkpt lat="52.283578" lon="5.654718">
        <ele>29.156019</ele>
        <time>2026-08-25T20:09:05.952Z</time>
      </trkpt>
      <trkpt lat="52.283503" lon="5.654530">
        <ele>29.203592</ele>
        <time>2026-08-25T20:09:08.759Z</time>
      </trkpt>
      <trkpt lat="52.283457" lon="5.654400">
        <ele>29.235424</ele>
        <time>2026-08-25T20:09:10.638Z</time>
      </trkpt>
      <trkpt lat="52.283378" lon="5.653957">
        <ele>29.333232</ele>
        <time>2026-08-25T20:09:16.440Z</time>
      </trkpt>
      <trkpt lat="52.283265" lon="5.653539">
        <ele>29.430097</ele>
        <time>2026-08-25T20:09:22.350Z</time>
      </trkpt>
      <trkpt lat="52.283231" lon="5.653423">
        <ele>29.457361</ele>
        <time>2026-08-25T20:09:24.068Z</time>
      </trkpt>
      <trkpt lat="52.282951" lon="5.652474">
        <ele>30.317420</ele>
        <time>2026-08-25T20:09:39.235Z</time>
      </trkpt>
      <trkpt lat="52.282733" lon="5.651806">
        <ele>30.999807</ele>
        <time>2026-08-25T20:09:52.185Z</time>
      </trkpt>
      <trkpt lat="52.282634" lon="5.651497">
        <ele>31.314195</ele>
        <time>2026-08-25T20:10:00.952Z</time>
      </trkpt>
      <trkpt lat="52.282308" lon="5.650491">
        <ele>32.270567</ele>
        <time>2026-08-25T20:10:29.564Z</time>
      </trkpt>
      <trkpt lat="52.282095" lon="5.649798">
        <ele>32.732391</ele>
        <time>2026-08-25T20:10:48.112Z</time>
      </trkpt>
      <trkpt lat="52.281857" lon="5.649062">
        <ele>33.228128</ele>
        <time>2026-08-25T20:11:05.814Z</time>
      </trkpt>
      <trkpt lat="52.281730" lon="5.648857">
        <ele>33.401863</ele>
        <time>2026-08-25T20:11:11.669Z</time>
      </trkpt>
      <trkpt lat="52.281644" lon="5.648764">
        <ele>33.502234</ele>
        <time>2026-08-25T20:11:15.019Z</time>
      </trkpt>
      <trkpt lat="52.281106" lon="5.648300">
        <ele>33.911804</ele>
        <time>2026-08-25T20:11:35.768Z</time>
      </trkpt>
      <trkpt lat="52.280623" lon="5.647913">
        <ele>33.977548</ele>
        <time>2026-08-25T20:11:53.913Z</time>
      </trkpt>
      <trkpt lat="52.280161" lon="5.647481">
        <ele>34.042601</ele>
        <time>2026-08-25T20:12:10.850Z</time>
      </trkpt>
      <trkpt lat="52.279907" lon="5.647237">
        <ele>34.078609</ele>
        <time>2026-08-25T20:12:20.091Z</time>
      </trkpt>
      <trkpt lat="52.279356" lon="5.646674">
        <ele>34.127793</ele>
        <time>2026-08-25T20:12:41.500Z</time>
      </trkpt>
      <trkpt lat="52.279130" lon="5.646387">
        <ele>34.142666</ele>
        <time>2026-08-25T20:12:50.917Z</time>
      </trkpt>
      <trkpt lat="52.279020" lon="5.646249">
        <ele>34.149872</ele>
        <time>2026-08-25T20:12:55.537Z</time>
      </trkpt>
      <trkpt lat="52.278874" lon="5.646061">
        <ele>34.159531</ele>
        <time>2026-08-25T20:13:01.764Z</time>
      </trkpt>
      <trkpt lat="52.278228" lon="5.645233">
        <ele>34.163244</ele>
        <time>2026-08-25T20:13:31.038Z</time>
      </trkpt>
      <trkpt lat="52.278580" lon="5.644338">
        <ele>33.797296</ele>
        <time>2026-08-25T20:13:52.282Z</time>
      </trkpt>
      <trkpt lat="52.278734" lon="5.643945">
        <ele>33.636778</ele>
        <time>2026-08-25T20:14:00.864Z</time>
      </trkpt>
      <trkpt lat="52.279211" lon="5.642910">
        <ele>33.191102</ele>
        <time>2026-08-25T20:14:23.609Z</time>
      </trkpt>
      <trkpt lat="52.279928" lon="5.641386">
        <ele>31.776664</ele>
        <time>2026-08-25T20:14:57.315Z</time>
      </trkpt>
      <trkpt lat="52.280840" lon="5.639506">
        <ele>30.076630</ele>
        <time>2026-08-25T20:15:42.830Z</time>
      </trkpt>
      <trkpt lat="52.281350" lon="5.638431">
        <ele>29.142430</ele>
        <time>2026-08-25T20:16:08.707Z</time>
      </trkpt>
      <trkpt lat="52.281532" lon="5.638040">
        <ele>28.728568</ele>
        <time>2026-08-25T20:16:17.766Z</time>
      </trkpt>
      <trkpt lat="52.281690" lon="5.637685">
        <ele>28.308841</ele>
        <time>2026-08-25T20:16:25.839Z</time>
      </trkpt>
      <trkpt lat="52.282136" lon="5.636686">
        <ele>27.126436</ele>
        <time>2026-08-25T20:16:48.630Z</time>
      </trkpt>
      <trkpt lat="52.282809" lon="5.635276">
        <ele>25.249382</ele>
        <time>2026-08-25T20:17:18.968Z</time>
      </trkpt>
      <trkpt lat="52.284085" lon="5.632524">
        <ele>21.625657</ele>
        <time>2026-08-25T20:18:17.158Z</time>
      </trkpt>
      <trkpt lat="52.284253" lon="5.632159">
        <ele>21.230102</ele>
        <time>2026-08-25T20:18:25.035Z</time>
      </trkpt>
      <trkpt lat="52.285021" lon="5.630466">
        <ele>20.051388</ele>
        <time>2026-08-25T20:19:03.154Z</time>
      </trkpt>
      <trkpt lat="52.285530" lon="5.629389">
        <ele>19.803629</ele>
        <time>2026-08-25T20:19:29.459Z</time>
      </trkpt>
      <trkpt lat="52.285690" lon="5.629050">
        <ele>19.725683</ele>
        <time>2026-08-25T20:19:37.936Z</time>
      </trkpt>
      <trkpt lat="52.285725" lon="5.628997">
        <ele>19.711485</ele>
        <time>2026-08-25T20:19:38.897Z</time>
      </trkpt>
      <trkpt lat="52.286046" lon="5.628298">
        <ele>19.451532</ele>
        <time>2026-08-25T20:19:49.170Z</time>
      </trkpt>
      <trkpt lat="52.286296" lon="5.627662">
        <ele>19.211748</ele>
        <time>2026-08-25T20:19:57.627Z</time>
      </trkpt>
      <trkpt lat="52.286571" lon="5.626628">
        <ele>18.854131</ele>
        <time>2026-08-25T20:20:09.605Z</time>
      </trkpt>
      <trkpt lat="52.286632" lon="5.626590">
        <ele>18.820284</ele>
        <time>2026-08-25T20:20:10.701Z</time>
      </trkpt>
      <trkpt lat="52.286926" lon="5.626538">
        <ele>18.616795</ele>
        <time>2026-08-25T20:20:15.554Z</time>
      </trkpt>
      <trkpt lat="52.287009" lon="5.626419">
        <ele>18.527166</ele>
        <time>2026-08-25T20:20:17.371Z</time>
      </trkpt>
      <trkpt lat="52.287066" lon="5.626207">
        <ele>18.412161</ele>
        <time>2026-08-25T20:20:19.696Z</time>
      </trkpt>
      <trkpt lat="52.287077" lon="5.626068">
        <ele>18.342555</ele>
        <time>2026-08-25T20:20:21.098Z</time>
      </trkpt>
      <trkpt lat="52.287033" lon="5.625929">
        <ele>18.264829</ele>
        <time>2026-08-25T20:20:22.708Z</time>
      </trkpt>
      <trkpt lat="52.286978" lon="5.625883">
        <ele>18.214671</ele>
        <time>2026-08-25T20:20:23.737Z</time>
      </trkpt>
      <trkpt lat="52.286895" lon="5.625971">
        <ele>18.134355</ele>
        <time>2026-08-25T20:20:25.223Z</time>
      </trkpt>
      <trkpt lat="52.286802" lon="5.625948">
        <ele>18.057992</ele>
        <time>2026-08-25T20:20:26.647Z</time>
      </trkpt>
      <trkpt lat="52.286763" lon="5.625901">
        <ele>18.018656</ele>
        <time>2026-08-25T20:20:27.385Z</time>
      </trkpt>
      <trkpt lat="52.286739" lon="5.625806">
        <ele>17.967611</ele>
        <time>2026-08-25T20:20:28.328Z</time>
      </trkpt>
      <trkpt lat="52.286755" lon="5.625567">
        <ele>17.848208</ele>
        <time>2026-08-25T20:20:30.570Z</time>
      </trkpt>
      <trkpt lat="52.286776" lon="5.625483">
        <ele>17.803142</ele>
        <time>2026-08-25T20:20:31.589Z</time>
      </trkpt>
      <trkpt lat="52.286823" lon="5.625262">
        <ele>17.686943</ele>
        <time>2026-08-25T20:20:34.201Z</time>
      </trkpt>
      <trkpt lat="52.286844" lon="5.625161">
        <ele>17.633966</ele>
        <time>2026-08-25T20:20:35.391Z</time>
      </trkpt>
      <trkpt lat="52.286872" lon="5.624939">
        <ele>17.521395</ele>
        <time>2026-08-25T20:20:37.539Z</time>
      </trkpt>
      <trkpt lat="52.286788" lon="5.624350">
        <ele>17.278338</ele>
        <time>2026-08-25T20:20:43.408Z</time>
      </trkpt>
      <trkpt lat="52.286793" lon="5.624079">
        <ele>17.247522</ele>
        <time>2026-08-25T20:20:46.090Z</time>
      </trkpt>
      <trkpt lat="52.286928" lon="5.623542">
        <ele>17.181533</ele>
        <time>2026-08-25T20:20:52.182Z</time>
      </trkpt>
      <trkpt lat="52.287087" lon="5.622941">
        <ele>17.107109</ele>
        <time>2026-08-25T20:20:59.386Z</time>
      </trkpt>
      <trkpt lat="52.287128" lon="5.622611">
        <ele>17.068836</ele>
        <time>2026-08-25T20:21:02.916Z</time>
      </trkpt>
      <trkpt lat="52.287259" lon="5.621561">
        <ele>16.924686</ele>
        <time>2026-08-25T20:21:13.590Z</time>
      </trkpt>
      <trkpt lat="52.287293" lon="5.621411">
        <ele>16.877696</ele>
        <time>2026-08-25T20:21:15.149Z</time>
      </trkpt>
      <trkpt lat="52.287314" lon="5.621294">
        <ele>16.841879</ele>
        <time>2026-08-25T20:21:16.344Z</time>
      </trkpt>
      <trkpt lat="52.287022" lon="5.621063">
        <ele>16.686103</ele>
        <time>2026-08-25T20:21:22.141Z</time>
      </trkpt>
      <trkpt lat="52.286984" lon="5.621034">
        <ele>16.665964</ele>
        <time>2026-08-25T20:21:22.874Z</time>
      </trkpt>
      <trkpt lat="52.286164" lon="5.619893">
        <ele>16.148863</ele>
        <time>2026-08-25T20:21:41.837Z</time>
      </trkpt>
      <trkpt lat="52.285835" lon="5.619742">
        <ele>16.042316</ele>
        <time>2026-08-25T20:21:48.082Z</time>
      </trkpt>
      <trkpt lat="52.285762" lon="5.619714">
        <ele>16.024703</ele>
        <time>2026-08-25T20:21:49.472Z</time>
      </trkpt>
      <trkpt lat="52.284394" lon="5.619180">
        <ele>15.694346</ele>
        <time>2026-08-25T20:22:16.027Z</time>
      </trkpt>
      <trkpt lat="52.284265" lon="5.619093">
        <ele>15.635680</ele>
        <time>2026-08-25T20:22:18.598Z</time>
      </trkpt>
      <trkpt lat="52.284069" lon="5.618781">
        <ele>15.447039</ele>
        <time>2026-08-25T20:22:23.539Z</time>
      </trkpt>
      <trkpt lat="52.283984" lon="5.618530">
        <ele>15.326023</ele>
        <time>2026-08-25T20:22:26.675Z</time>
      </trkpt>
      <trkpt lat="52.283876" lon="5.618458">
        <ele>15.245598</ele>
        <time>2026-08-25T20:22:28.715Z</time>
      </trkpt>
      <trkpt lat="52.283089" lon="5.617784">
        <ele>14.632971</ele>
        <time>2026-08-25T20:22:43.721Z</time>
      </trkpt>
      <trkpt lat="52.282942" lon="5.617682">
        <ele>14.522856</ele>
        <time>2026-08-25T20:22:46.388Z</time>
      </trkpt>
      <trkpt lat="52.281706" lon="5.616639">
        <ele>14.454913</ele>
        <time>2026-08-25T20:23:11.208Z</time>
      </trkpt>
      <trkpt lat="52.280607" lon="5.615765">
        <ele>14.870227</ele>
        <time>2026-08-25T20:23:42.091Z</time>
      </trkpt>
      <trkpt lat="52.280052" lon="5.615323">
        <ele>15.235917</ele>
        <time>2026-08-25T20:23:56.656Z</time>
      </trkpt>
      <trkpt lat="52.279705" lon="5.615038">
        <ele>15.465947</ele>
        <time>2026-08-25T20:24:03.914Z</time>
      </trkpt>
      <trkpt lat="52.280727" lon="5.614805">
        <ele>14.615768</ele>
        <time>2026-08-25T20:24:21.064Z</time>
      </trkpt>
      <trkpt lat="52.280899" lon="5.614750">
        <ele>14.442887</ele>
        <time>2026-08-25T20:24:23.844Z</time>
      </trkpt>
      <trkpt lat="52.282497" lon="5.614611">
        <ele>13.242622</ele>
        <time>2026-08-25T20:24:51.123Z</time>
      </trkpt>
      <trkpt lat="52.284106" lon="5.614435">
        <ele>12.656488</ele>
        <time>2026-08-25T20:25:21.068Z</time>
      </trkpt>
      <trkpt lat="52.285319" lon="5.614313">
        <ele>12.554695</ele>
        <time>2026-08-25T20:25:44.119Z</time>
      </trkpt>
      <trkpt lat="52.285594" lon="5.614289">
        <ele>12.587101</ele>
        <time>2026-08-25T20:25:49.503Z</time>
      </trkpt>
      <trkpt lat="52.285705" lon="5.614276">
        <ele>12.600196</ele>
        <time>2026-08-25T20:25:51.698Z</time>
      </trkpt>
      <trkpt lat="52.285957" lon="5.614248">
        <ele>12.629917</ele>
        <time>2026-08-25T20:25:56.754Z</time>
      </trkpt>
      <trkpt lat="52.286005" lon="5.614269">
        <ele>12.635764</ele>
        <time>2026-08-25T20:25:57.757Z</time>
      </trkpt>
      <trkpt lat="52.286250" lon="5.614531">
        <ele>12.670214</ele>
        <time>2026-08-25T20:26:03.657Z</time>
      </trkpt>
      <trkpt lat="52.286340" lon="5.614577">
        <ele>12.681310</ele>
        <time>2026-08-25T20:26:05.584Z</time>
      </trkpt>
      <trkpt lat="52.286543" lon="5.614530">
        <ele>12.705436</ele>
        <time>2026-08-25T20:26:09.766Z</time>
      </trkpt>
      <trkpt lat="52.286826" lon="5.614438">
        <ele>12.739389</ele>
        <time>2026-08-25T20:26:15.566Z</time>
      </trkpt>
      <trkpt lat="52.286991" lon="5.614340">
        <ele>12.730684</ele>
        <time>2026-08-25T20:26:19.055Z</time>
      </trkpt>
      <trkpt lat="52.287067" lon="5.614205">
        <ele>12.702511</ele>
        <time>2026-08-25T20:26:21.052Z</time>
      </trkpt>
      <trkpt lat="52.287160" lon="5.614142">
        <ele>12.677240</ele>
        <time>2026-08-25T20:26:22.784Z</time>
      </trkpt>
      <trkpt lat="52.287191" lon="5.614123">
        <ele>12.668929</ele>
        <time>2026-08-25T20:26:23.340Z</time>
      </trkpt>
      <trkpt lat="52.287072" lon="5.613953">
        <ele>12.629257</ele>
        <time>2026-08-25T20:26:26.304Z</time>
      </trkpt>
      <trkpt lat="52.286946" lon="5.613772">
        <ele>12.587150</ele>
        <time>2026-08-25T20:26:29.400Z</time>
      </trkpt>
      <trkpt lat="52.286641" lon="5.613316">
        <ele>12.483394</ele>
        <time>2026-08-25T20:26:36.905Z</time>
      </trkpt>
      <trkpt lat="52.286186" lon="5.612525">
        <ele>12.316660</ele>
        <time>2026-08-25T20:26:48.740Z</time>
      </trkpt>
      <trkpt lat="52.285146" lon="5.610777">
        <ele>11.845147</ele>
        <time>2026-08-25T20:27:15.958Z</time>
      </trkpt>
      <trkpt lat="52.284899" lon="5.610301">
        <ele>11.723598</ele>
        <time>2026-08-25T20:27:23.085Z</time>
      </trkpt>
      <trkpt lat="52.284149" lon="5.608976">
        <ele>11.450725</ele>
        <time>2026-08-25T20:27:43.752Z</time>
      </trkpt>
      <trkpt lat="52.283549" lon="5.608007">
        <ele>11.250816</ele>
        <time>2026-08-25T20:27:59.131Z</time>
      </trkpt>
      <trkpt lat="52.283152" lon="5.607345">
        <ele>11.141957</ele>
        <time>2026-08-25T20:28:09.557Z</time>
      </trkpt>
      <trkpt lat="52.282781" lon="5.606622">
        <ele>11.031142</ele>
        <time>2026-08-25T20:28:20.338Z</time>
      </trkpt>
      <trkpt lat="52.282658" lon="5.606385">
        <ele>10.994646</ele>
        <time>2026-08-25T20:28:23.924Z</time>
      </trkpt>
      <trkpt lat="52.283555" lon="5.606644">
        <ele>10.898563</ele>
        <time>2026-08-25T20:28:41.296Z</time>
      </trkpt>
      <trkpt lat="52.283975" lon="5.606766">
        <ele>10.872584</ele>
        <time>2026-08-25T20:28:49.366Z</time>
      </trkpt>
      <trkpt lat="52.284612" lon="5.607080">
        <ele>10.832065</ele>
        <time>2026-08-25T20:29:01.842Z</time>
      </trkpt>
      <trkpt lat="52.285361" lon="5.607365">
        <ele>10.816176</ele>
        <time>2026-08-25T20:29:16.550Z</time>
      </trkpt>
      <trkpt lat="52.285433" lon="5.607393">
        <ele>10.815122</ele>
        <time>2026-08-25T20:29:18.023Z</time>
      </trkpt>
      <trkpt lat="52.286499" lon="5.607872">
        <ele>10.803092</ele>
        <time>2026-08-25T20:29:39.338Z</time>
      </trkpt>
      <trkpt lat="52.287236" lon="5.608204">
        <ele>10.856572</ele>
        <time>2026-08-25T20:29:54.023Z</time>
      </trkpt>
      <trkpt lat="52.287789" lon="5.608472">
        <ele>10.896921</ele>
        <time>2026-08-25T20:30:05.130Z</time>
      </trkpt>
      <trkpt lat="52.288190" lon="5.608668">
        <ele>10.926514</ele>
        <time>2026-08-25T20:30:13.429Z</time>
      </trkpt>
      <trkpt lat="52.288437" lon="5.608785">
        <ele>10.959549</ele>
        <time>2026-08-25T20:30:18.675Z</time>
      </trkpt>
      <trkpt lat="52.288664" lon="5.608677">
        <ele>10.989920</ele>
        <time>2026-08-25T20:30:23.730Z</time>
      </trkpt>
      <trkpt lat="52.288791" lon="5.608663">
        <ele>11.006272</ele>
        <time>2026-08-25T20:30:26.434Z</time>
      </trkpt>
      <trkpt lat="52.288917" lon="5.608656">
        <ele>11.022467</ele>
        <time>2026-08-25T20:30:29.090Z</time>
      </trkpt>
      <trkpt lat="52.289091" lon="5.608544">
        <ele>11.046490</ele>
        <time>2026-08-25T20:30:33.009Z</time>
      </trkpt>
      <trkpt lat="52.289113" lon="5.608484">
        <ele>11.051987</ele>
        <time>2026-08-25T20:30:33.779Z</time>
      </trkpt>
      <trkpt lat="52.289169" lon="5.608358">
        <ele>11.064225</ele>
        <time>2026-08-25T20:30:35.499Z</time>
      </trkpt>
      <trkpt lat="52.289362" lon="5.607645">
        <ele>11.125491</ele>
        <time>2026-08-25T20:30:43.959Z</time>
      </trkpt>
      <trkpt lat="52.289448" lon="5.607473">
        <ele>11.142947</ele>
        <time>2026-08-25T20:30:46.282Z</time>
      </trkpt>
      <trkpt lat="52.289836" lon="5.606883">
        <ele>10.877137</ele>
        <time>2026-08-25T20:30:54.886Z</time>
      </trkpt>
      <trkpt lat="52.290181" lon="5.606262">
        <ele>10.536497</ele>
        <time>2026-08-25T20:31:02.872Z</time>
      </trkpt>
      <trkpt lat="52.290162" lon="5.606247">
        <ele>10.522491</ele>
        <time>2026-08-25T20:31:03.235Z</time>
      </trkpt>
      <trkpt lat="52.289927" lon="5.605972">
        <ele>10.330643</ele>
        <time>2026-08-25T20:31:08.205Z</time>
      </trkpt>
      <trkpt lat="52.289849" lon="5.605770">
        <ele>10.233644</ele>
        <time>2026-08-25T20:31:10.694Z</time>
      </trkpt>
      <trkpt lat="52.289817" lon="5.605546">
        <ele>10.140241</ele>
        <time>2026-08-25T20:31:13.070Z</time>
      </trkpt>
      <trkpt lat="52.289839" lon="5.605374">
        <ele>10.068890</ele>
        <time>2026-08-25T20:31:14.890Z</time>
      </trkpt>
      <trkpt lat="52.289850" lon="5.605293">
        <ele>10.035199</ele>
        <time>2026-08-25T20:31:15.744Z</time>
      </trkpt>
      <trkpt lat="52.289863" lon="5.605122">
        <ele>9.965230</ele>
        <time>2026-08-25T20:31:17.517Z</time>
      </trkpt>
      <trkpt lat="52.289853" lon="5.605086">
        <ele>9.951498</ele>
        <time>2026-08-25T20:31:17.914Z</time>
      </trkpt>
      <trkpt lat="52.289485" lon="5.604753">
        <ele>9.719629</ele>
        <time>2026-08-25T20:31:24.975Z</time>
      </trkpt>
      <trkpt lat="52.288604" lon="5.603957">
        <ele>9.164725</ele>
        <time>2026-08-25T20:31:42.815Z</time>
      </trkpt>
      <trkpt lat="52.285031" lon="5.600856">
        <ele>9.015423</ele>
        <time>2026-08-25T20:33:01.028Z</time>
      </trkpt>
      <trkpt lat="52.283479" lon="5.599420">
        <ele>8.657971</ele>
        <time>2026-08-25T20:33:34.017Z</time>
      </trkpt>
      <trkpt lat="52.282803" lon="5.598746">
        <ele>8.718868</ele>
        <time>2026-08-25T20:33:48.926Z</time>
      </trkpt>
      <trkpt lat="52.281992" lon="5.597869">
        <ele>8.816862</ele>
        <time>2026-08-25T20:34:08.663Z</time>
      </trkpt>
      <trkpt lat="52.281868" lon="5.597735">
        <ele>8.900877</ele>
        <time>2026-08-25T20:34:11.799Z</time>
      </trkpt>
      <trkpt lat="52.281843" lon="5.597700">
        <ele>8.919481</ele>
        <time>2026-08-25T20:34:12.509Z</time>
      </trkpt>
      <trkpt lat="52.281696" lon="5.597546">
        <ele>9.018164</ele>
        <time>2026-08-25T20:34:16.211Z</time>
      </trkpt>
      <trkpt lat="52.281332" lon="5.597044">
        <ele>9.287338</ele>
        <time>2026-08-25T20:34:34.741Z</time>
      </trkpt>
      <trkpt lat="52.280980" lon="5.596682">
        <ele>9.522388</ele>
        <time>2026-08-25T20:34:51.287Z</time>
      </trkpt>
      <trkpt lat="52.280563" lon="5.596227">
        <ele>9.805761</ele>
        <time>2026-08-25T20:35:11.493Z</time>
      </trkpt>
      <trkpt lat="52.280361" lon="5.596030">
        <ele>10.026754</ele>
        <time>2026-08-25T20:35:21.142Z</time>
      </trkpt>
      <trkpt lat="52.280152" lon="5.595967">
        <ele>10.226911</ele>
        <time>2026-08-25T20:35:29.946Z</time>
      </trkpt>
      <trkpt lat="52.279632" lon="5.596023">
        <ele>10.717715</ele>
        <time>2026-08-25T20:35:52.251Z</time>
      </trkpt>
      <trkpt lat="52.279096" lon="5.596231">
        <ele>11.236557</ele>
        <time>2026-08-25T20:36:15.583Z</time>
      </trkpt>
      <trkpt lat="52.278597" lon="5.596424">
        <ele>11.441645</ele>
        <time>2026-08-25T20:36:36.007Z</time>
      </trkpt>
      <trkpt lat="52.278362" lon="5.595385">
        <ele>11.269896</ele>
        <time>2026-08-25T20:36:48.798Z</time>
      </trkpt>
      <trkpt lat="52.278264" lon="5.593752">
        <ele>10.972804</ele>
        <time>2026-08-25T20:37:06.224Z</time>
      </trkpt>
      <trkpt lat="52.278252" lon="5.593515">
        <ele>10.882146</ele>
        <time>2026-08-25T20:37:09.292Z</time>
      </trkpt>
      <trkpt lat="52.278191" lon="5.593476">
        <ele>10.841334</ele>
        <time>2026-08-25T20:37:10.458Z</time>
      </trkpt>
      <trkpt lat="52.278168" lon="5.593461">
        <ele>10.825904</ele>
        <time>2026-08-25T20:37:10.906Z</time>
      </trkpt>
      <trkpt lat="52.278000" lon="5.593211">
        <ele>10.684339</ele>
        <time>2026-08-25T20:37:14.958Z</time>
      </trkpt>
      <trkpt lat="52.277957" lon="5.593203">
        <ele>10.657373</ele>
        <time>2026-08-25T20:37:16.516Z</time>
      </trkpt>
      <trkpt lat="52.277772" lon="5.593088">
        <ele>10.534047</ele>
        <time>2026-08-25T20:37:20.075Z</time>
      </trkpt>
      <trkpt lat="52.277178" lon="5.592220">
        <ele>10.037577</ele>
        <time>2026-08-25T20:37:34.869Z</time>
      </trkpt>
      <trkpt lat="52.276936" lon="5.591906">
        <ele>9.888075</ele>
        <time>2026-08-25T20:37:40.624Z</time>
      </trkpt>
      <trkpt lat="52.276861" lon="5.591880">
        <ele>9.866323</ele>
        <time>2026-08-25T20:37:42.039Z</time>
      </trkpt>
      <trkpt lat="52.276634" lon="5.592139">
        <ele>9.787780</ele>
        <time>2026-08-25T20:37:47.188Z</time>
      </trkpt>
      <trkpt lat="52.276566" lon="5.592367">
        <ele>9.743750</ele>
        <time>2026-08-25T20:37:50.098Z</time>
      </trkpt>
      <trkpt lat="52.276232" lon="5.592584">
        <ele>9.641778</ele>
        <time>2026-08-25T20:37:56.921Z</time>
      </trkpt>
      <trkpt lat="52.275955" lon="5.592621">
        <ele>9.562928</ele>
        <time>2026-08-25T20:38:02.258Z</time>
      </trkpt>
      <trkpt lat="52.274222" lon="5.592529">
        <ele>9.553981</ele>
        <time>2026-08-25T20:38:36.476Z</time>
      </trkpt>
      <trkpt lat="52.274159" lon="5.592944">
        <ele>9.584351</ele>
        <time>2026-08-25T20:38:41.995Z</time>
      </trkpt>
      <trkpt lat="52.274074" lon="5.593450">
        <ele>9.621620</ele>
        <time>2026-08-25T20:38:48.881Z</time>
      </trkpt>
      <trkpt lat="52.274026" lon="5.593581">
        <ele>9.673297</ele>
        <time>2026-08-25T20:38:50.902Z</time>
      </trkpt>
      <trkpt lat="52.273866" lon="5.593722">
        <ele>9.781131</ele>
        <time>2026-08-25T20:38:54.880Z</time>
      </trkpt>
      <trkpt lat="52.273545" lon="5.595048">
        <ele>10.298744</ele>
        <time>2026-08-25T20:39:14.466Z</time>
      </trkpt>
      <trkpt lat="52.273438" lon="5.595354">
        <ele>10.426674</ele>
        <time>2026-08-25T20:39:19.354Z</time>
      </trkpt>
      <trkpt lat="52.273356" lon="5.595468">
        <ele>10.490537</ele>
        <time>2026-08-25T20:39:21.837Z</time>
      </trkpt>
      <trkpt lat="52.273299" lon="5.595619">
        <ele>10.554938</ele>
        <time>2026-08-25T20:39:24.349Z</time>
      </trkpt>
      <trkpt lat="52.273121" lon="5.595738">
        <ele>10.669024</ele>
        <time>2026-08-25T20:39:28.842Z</time>
      </trkpt>
      <trkpt lat="52.272589" lon="5.596857">
        <ele>11.282355</ele>
        <time>2026-08-25T20:39:49.575Z</time>
      </trkpt>
      <trkpt lat="52.272259" lon="5.597083">
        <ele>11.537138</ele>
        <time>2026-08-25T20:39:58.066Z</time>
      </trkpt>
      <trkpt lat="52.272080" lon="5.597270">
        <ele>11.688416</ele>
        <time>2026-08-25T20:40:02.976Z</time>
      </trkpt>
      <trkpt lat="52.271546" lon="5.598141">
        <ele>12.129720</ele>
        <time>2026-08-25T20:40:19.247Z</time>
      </trkpt>
      <trkpt lat="52.271478" lon="5.598109">
        <ele>12.161180</ele>
        <time>2026-08-25T20:40:20.727Z</time>
      </trkpt>
      <trkpt lat="52.271490" lon="5.598029">
        <ele>12.183589</ele>
        <time>2026-08-25T20:40:21.655Z</time>
      </trkpt>
      <trkpt lat="52.271387" lon="5.597980">
        <ele>12.231282</ele>
        <time>2026-08-25T20:40:24.258Z</time>
      </trkpt>
      <trkpt lat="52.271301" lon="5.598042">
        <ele>12.273072</ele>
        <time>2026-08-25T20:40:26.188Z</time>
      </trkpt>
      <trkpt lat="52.270974" lon="5.598095">
        <ele>12.419166</ele>
        <time>2026-08-25T20:40:32.872Z</time>
      </trkpt>
      <trkpt lat="52.270872" lon="5.598154">
        <ele>12.467270</ele>
        <time>2026-08-25T20:40:35.113Z</time>
      </trkpt>
      <trkpt lat="52.270001" lon="5.598836">
        <ele>12.928442</ele>
        <time>2026-08-25T20:40:55.971Z</time>
      </trkpt>
      <trkpt lat="52.269279" lon="5.599531">
        <ele>13.394398</ele>
        <time>2026-08-25T20:41:15.020Z</time>
      </trkpt>
      <trkpt lat="52.268240" lon="5.600466">
        <ele>13.798878</ele>
        <time>2026-08-25T20:41:39.949Z</time>
      </trkpt>
      <trkpt lat="52.268200" lon="5.600476">
        <ele>13.801160</ele>
        <time>2026-08-25T20:41:40.755Z</time>
      </trkpt>
      <trkpt lat="52.267741" lon="5.600275">
        <ele>13.827960</ele>
        <time>2026-08-25T20:41:50.004Z</time>
      </trkpt>
      <trkpt lat="52.267500" lon="5.600507">
        <ele>13.843734</ele>
        <time>2026-08-25T20:41:55.502Z</time>
      </trkpt>
      <trkpt lat="52.267410" lon="5.600642">
        <ele>13.850624</ele>
        <time>2026-08-25T20:41:57.862Z</time>
      </trkpt>
      <trkpt lat="52.267204" lon="5.601342">
        <ele>13.844527</ele>
        <time>2026-08-25T20:42:08.487Z</time>
      </trkpt>
      <trkpt lat="52.266906" lon="5.601701">
        <ele>13.749109</ele>
        <time>2026-08-25T20:42:16.671Z</time>
      </trkpt>
      <trkpt lat="52.266701" lon="5.601906">
        <ele>13.687166</ele>
        <time>2026-08-25T20:42:21.927Z</time>
      </trkpt>
      <trkpt lat="52.266604" lon="5.602003">
        <ele>13.657857</ele>
        <time>2026-08-25T20:42:24.419Z</time>
      </trkpt>
      <trkpt lat="52.266139" lon="5.601940">
        <ele>13.537604</ele>
        <time>2026-08-25T20:42:32.286Z</time>
      </trkpt>
      <trkpt lat="52.265927" lon="5.601998">
        <ele>13.482206</ele>
        <time>2026-08-25T20:42:35.827Z</time>
      </trkpt>
      <trkpt lat="52.265619" lon="5.602140">
        <ele>13.398363</ele>
        <time>2026-08-25T20:42:41.059Z</time>
      </trkpt>
      <trkpt lat="52.265578" lon="5.601873">
        <ele>13.347755</ele>
        <time>2026-08-25T20:42:44.869Z</time>
      </trkpt>
      <trkpt lat="52.265548" lon="5.601800">
        <ele>13.331589</ele>
        <time>2026-08-25T20:42:46.082Z</time>
      </trkpt>
      <trkpt lat="52.265459" lon="5.601719">
        <ele>13.300986</ele>
        <time>2026-08-25T20:42:48.387Z</time>
      </trkpt>
      <trkpt lat="52.265383" lon="5.601694">
        <ele>13.277698</ele>
        <time>2026-08-25T20:42:50.159Z</time>
      </trkpt>
      <trkpt lat="52.265162" lon="5.601614">
        <ele>13.209700</ele>
        <time>2026-08-25T20:42:55.268Z</time>
      </trkpt>
      <trkpt lat="52.264949" lon="5.601471">
        <ele>13.140524</ele>
        <time>2026-08-25T20:42:59.607Z</time>
      </trkpt>
      <trkpt lat="52.264157" lon="5.600820">
        <ele>12.874200</ele>
        <time>2026-08-25T20:43:15.689Z</time>
      </trkpt>
      <trkpt lat="52.263910" lon="5.600618">
        <ele>12.745647</ele>
        <time>2026-08-25T20:43:20.609Z</time>
      </trkpt>
      <trkpt lat="52.264304" lon="5.597918">
        <ele>11.952510</ele>
        <time>2026-08-25T20:43:51.013Z</time>
      </trkpt>
      <trkpt lat="52.264294" lon="5.597026">
        <ele>11.766579</ele>
        <time>2026-08-25T20:44:00.816Z</time>
      </trkpt>
      <trkpt lat="52.264588" lon="5.596666">
        <ele>11.641471</ele>
        <time>2026-08-25T20:44:13.975Z</time>
      </trkpt>
      <trkpt lat="52.265355" lon="5.595832">
        <ele>11.405529</ele>
        <time>2026-08-25T20:44:47.574Z</time>
      </trkpt>
      <trkpt lat="52.265924" lon="5.595010">
        <ele>11.456780</ele>
        <time>2026-08-25T20:45:15.901Z</time>
      </trkpt>
      <trkpt lat="52.266326" lon="5.594185">
        <ele>11.500330</ele>
        <time>2026-08-25T20:45:40.540Z</time>
      </trkpt>
      <trkpt lat="52.266734" lon="5.592784">
        <ele>11.274591</ele>
        <time>2026-08-25T20:46:16.160Z</time>
      </trkpt>
      <trkpt lat="52.266797" lon="5.592624">
        <ele>11.237240</ele>
        <time>2026-08-25T20:46:20.438Z</time>
      </trkpt>
      <trkpt lat="52.266899" lon="5.592517">
        <ele>11.198357</ele>
        <time>2026-08-25T20:46:24.834Z</time>
      </trkpt>
      <trkpt lat="52.267277" lon="5.592515">
        <ele>11.077098</ele>
        <time>2026-08-25T20:46:38.307Z</time>
      </trkpt>
      <trkpt lat="52.267887" lon="5.592298">
        <ele>10.743004</ele>
        <time>2026-08-25T20:47:00.014Z</time>
      </trkpt>
      <trkpt lat="52.267981" lon="5.592218">
        <ele>10.633442</ele>
        <time>2026-08-25T20:47:01.782Z</time>
      </trkpt>
      <trkpt lat="52.268075" lon="5.591995">
        <ele>10.462140</ele>
        <time>2026-08-25T20:47:04.507Z</time>
      </trkpt>
      <trkpt lat="52.268594" lon="5.588243">
        <ele>8.567346</ele>
        <time>2026-08-25T20:47:43.969Z</time>
      </trkpt>
      <trkpt lat="52.268767" lon="5.586941">
        <ele>8.175387</ele>
        <time>2026-08-25T20:48:00.324Z</time>
      </trkpt>
      <trkpt lat="52.268907" lon="5.585568">
        <ele>8.236844</ele>
        <time>2026-08-25T20:48:18.710Z</time>
      </trkpt>
      <trkpt lat="52.269497" lon="5.584079">
        <ele>8.339935</ele>
        <time>2026-08-25T20:48:39.526Z</time>
      </trkpt>
      <trkpt lat="52.269599" lon="5.583822">
        <ele>8.380745</ele>
        <time>2026-08-25T20:48:43.174Z</time>
      </trkpt>
      <trkpt lat="52.268762" lon="5.582690">
        <ele>8.617288</ele>
        <time>2026-08-25T20:49:05.553Z</time>
      </trkpt>
      <trkpt lat="52.268659" lon="5.582597">
        <ele>8.642908</ele>
        <time>2026-08-25T20:49:08.190Z</time>
      </trkpt>
      <trkpt lat="52.268546" lon="5.582531">
        <ele>8.669034</ele>
        <time>2026-08-25T20:49:10.951Z</time>
      </trkpt>
      <trkpt lat="52.267173" lon="5.582324">
        <ele>9.538935</ele>
        <time>2026-08-25T20:49:43.631Z</time>
      </trkpt>
      <trkpt lat="52.266884" lon="5.582281">
        <ele>9.733123</ele>
        <time>2026-08-25T20:49:50.430Z</time>
      </trkpt>
      <trkpt lat="52.266910" lon="5.582120">
        <ele>9.801313</ele>
        <time>2026-08-25T20:49:52.756Z</time>
      </trkpt>
      <trkpt lat="52.267388" lon="5.580340">
        <ele>9.593230</ele>
        <time>2026-08-25T20:50:16.944Z</time>
      </trkpt>
      <trkpt lat="52.267390" lon="5.580243">
        <ele>9.575904</ele>
        <time>2026-08-25T20:50:18.065Z</time>
      </trkpt>
      <trkpt lat="52.267345" lon="5.580131">
        <ele>9.551986</ele>
        <time>2026-08-25T20:50:19.616Z</time>
      </trkpt>
      <trkpt lat="52.266898" lon="5.579581">
        <ele>9.388761</ele>
        <time>2026-08-25T20:50:29.607Z</time>
      </trkpt>
      <trkpt lat="52.266472" lon="5.579058">
        <ele>8.737078</ele>
        <time>2026-08-25T20:50:38.584Z</time>
      </trkpt>
      <trkpt lat="52.266375" lon="5.578909">
        <ele>8.560646</ele>
        <time>2026-08-25T20:50:40.781Z</time>
      </trkpt>
      <trkpt lat="52.266340" lon="5.578803">
        <ele>8.462961</ele>
        <time>2026-08-25T20:50:41.993Z</time>
      </trkpt>
      <trkpt lat="52.266321" lon="5.578671">
        <ele>8.352982</ele>
        <time>2026-08-25T20:50:43.350Z</time>
      </trkpt>
      <trkpt lat="52.266325" lon="5.578558">
        <ele>8.261181</ele>
        <time>2026-08-25T20:50:44.500Z</time>
      </trkpt>
      <trkpt lat="52.265578" lon="5.578225">
        <ele>7.235039</ele>
        <time>2026-08-25T20:50:55.500Z</time>
      </trkpt>
      <trkpt lat="52.265469" lon="5.577988">
        <ele>6.994591</ele>
        <time>2026-08-25T20:50:58.148Z</time>
      </trkpt>
      <trkpt lat="52.265421" lon="5.577940">
        <ele>6.964701</ele>
        <time>2026-08-25T20:50:58.973Z</time>
      </trkpt>
      <trkpt lat="52.265342" lon="5.577910">
        <ele>6.926108</ele>
        <time>2026-08-25T20:51:00.182Z</time>
      </trkpt>
      <trkpt lat="52.265227" lon="5.577963">
        <ele>6.869251</ele>
        <time>2026-08-25T20:51:01.988Z</time>
      </trkpt>
      <trkpt lat="52.265177" lon="5.578036">
        <ele>6.837345</ele>
        <time>2026-08-25T20:51:03.000Z</time>
      </trkpt>
      <trkpt lat="52.264652" lon="5.577807">
        <ele>6.578779</ele>
        <time>2026-08-25T20:51:11.469Z</time>
      </trkpt>
      <trkpt lat="52.264451" lon="5.577671">
        <ele>6.475258</ele>
        <time>2026-08-25T20:51:14.980Z</time>
      </trkpt>
      <trkpt lat="52.264281" lon="5.577505">
        <ele>6.381020</ele>
        <time>2026-08-25T20:51:18.279Z</time>
      </trkpt>
      <trkpt lat="52.264075" lon="5.577246">
        <ele>6.257335</ele>
        <time>2026-08-25T20:51:22.629Z</time>
      </trkpt>
      <trkpt lat="52.262275" lon="5.574367">
        <ele>6.294725</ele>
        <time>2026-08-25T20:52:06.547Z</time>
      </trkpt>
      <trkpt lat="52.261949" lon="5.574003">
        <ele>6.324942</ele>
        <time>2026-08-25T20:52:13.661Z</time>
      </trkpt>
      <trkpt lat="52.261788" lon="5.573869">
        <ele>6.338770</ele>
        <time>2026-08-25T20:52:16.901Z</time>
      </trkpt>
      <trkpt lat="52.261438" lon="5.573667">
        <ele>6.367177</ele>
        <time>2026-08-25T20:52:23.541Z</time>
      </trkpt>
      <trkpt lat="52.260275" lon="5.573012">
        <ele>6.262110</ele>
        <time>2026-08-25T20:52:44.531Z</time>
      </trkpt>
      <trkpt lat="52.260289" lon="5.572925">
        <ele>6.253251</ele>
        <time>2026-08-25T20:52:45.449Z</time>
      </trkpt>
      <trkpt lat="52.260342" lon="5.572571">
        <ele>6.217360</ele>
        <time>2026-08-25T20:52:49.093Z</time>
      </trkpt>
      <trkpt lat="52.260442" lon="5.571871">
        <ele>6.146569</ele>
        <time>2026-08-25T20:52:56.254Z</time>
      </trkpt>
      <trkpt lat="52.260470" lon="5.571649">
        <ele>6.124247</ele>
        <time>2026-08-25T20:52:58.493Z</time>
      </trkpt>
      <trkpt lat="52.260565" lon="5.570949">
        <ele>5.984273</ele>
        <time>2026-08-25T20:53:05.525Z</time>
      </trkpt>
      <trkpt lat="52.260781" lon="5.569365">
        <ele>5.619442</ele>
        <time>2026-08-25T20:53:21.417Z</time>
      </trkpt>
      <trkpt lat="52.260882" lon="5.568770">
        <ele>5.480632</ele>
        <time>2026-08-25T20:53:27.563Z</time>
      </trkpt>
      <trkpt lat="52.262044" lon="5.560588">
        <ele>4.464967</ele>
        <time>2026-08-25T20:54:53.024Z</time>
      </trkpt>
      <trkpt lat="52.261342" lon="5.560159">
        <ele>4.270305</ele>
        <time>2026-08-25T20:55:09.352Z</time>
      </trkpt>
      <trkpt lat="52.261078" lon="5.559995">
        <ele>4.194249</ele>
        <time>2026-08-25T20:55:14.391Z</time>
      </trkpt>
      <trkpt lat="52.258117" lon="5.558166">
        <ele>3.730089</ele>
        <time>2026-08-25T20:56:14.190Z</time>
      </trkpt>
      <trkpt lat="52.255010" lon="5.556296">
        <ele>3.644963</ele>
        <time>2026-08-25T20:57:17.694Z</time>
      </trkpt>
      <trkpt lat="52.254881" lon="5.556219">
        <ele>3.617968</ele>
        <time>2026-08-25T20:57:20.234Z</time>
      </trkpt>
      <trkpt lat="52.255243" lon="5.554804">
        <ele>3.385703</ele>
        <time>2026-08-25T20:57:41.152Z</time>
      </trkpt>
      <trkpt lat="52.256048" lon="5.551373">
        <ele>2.860881</ele>
        <time>2026-08-25T20:58:31.695Z</time>
      </trkpt>
      <trkpt lat="52.256222" lon="5.550792">
        <ele>2.773990</ele>
        <time>2026-08-25T20:58:40.710Z</time>
      </trkpt>
      <trkpt lat="52.256980" lon="5.548508">
        <ele>2.460650</ele>
        <time>2026-08-25T20:59:16.636Z</time>
      </trkpt>
      <trkpt lat="52.257181" lon="5.547789">
        <ele>2.370015</ele>
        <time>2026-08-25T20:59:27.437Z</time>
      </trkpt>
      <trkpt lat="52.257250" lon="5.547500">
        <ele>2.335030</ele>
        <time>2026-08-25T20:59:31.695Z</time>
      </trkpt>
      <trkpt lat="52.257451" lon="5.546275">
        <ele>2.191998</ele>
        <time>2026-08-25T20:59:49.258Z</time>
      </trkpt>
      <trkpt lat="52.257688" lon="5.544798">
        <ele>2.046372</ele>
        <time>2026-08-25T21:00:10.819Z</time>
      </trkpt>
      <trkpt lat="52.258037" lon="5.542540">
        <ele>1.839732</ele>
        <time>2026-08-25T21:00:43.358Z</time>
      </trkpt>
      <trkpt lat="52.257940" lon="5.541890">
        <ele>1.682505</ele>
        <time>2026-08-25T21:00:52.474Z</time>
      </trkpt>
      <trkpt lat="52.257906" lon="5.541724">
        <ele>1.641368</ele>
        <time>2026-08-25T21:00:54.200Z</time>
      </trkpt>
      <trkpt lat="52.257655" lon="5.539479">
        <ele>1.134687</ele>
        <time>2026-08-25T21:01:16.359Z</time>
      </trkpt>
      <trkpt lat="52.257591" lon="5.538901">
        <ele>1.047077</ele>
        <time>2026-08-25T21:01:22.128Z</time>
      </trkpt>
      <trkpt lat="52.257583" lon="5.538816">
        <ele>1.034251</ele>
        <time>2026-08-25T21:01:22.986Z</time>
      </trkpt>
      <trkpt lat="52.257477" lon="5.538083">
        <ele>0.921912</ele>
        <time>2026-08-25T21:01:33.312Z</time>
      </trkpt>
      <trkpt lat="52.257357" lon="5.537864">
        <ele>0.878072</ele>
        <time>2026-08-25T21:01:37.381Z</time>
      </trkpt>
      <trkpt lat="52.255510" lon="5.537377">
        <ele>0.807065</ele>
        <time>2026-08-25T21:02:20.772Z</time>
      </trkpt>
      <trkpt lat="52.254861" lon="5.537264">
        <ele>0.836172</ele>
        <time>2026-08-25T21:02:36.223Z</time>
      </trkpt>
      <trkpt lat="52.254536" lon="5.537242">
        <ele>0.850942</ele>
        <time>2026-08-25T21:02:43.903Z</time>
      </trkpt>
      <trkpt lat="52.254015" lon="5.537266">
        <ele>0.874608</ele>
        <time>2026-08-25T21:02:56.174Z</time>
      </trkpt>
      <trkpt lat="52.253720" lon="5.537230">
        <ele>0.888040</ele>
        <time>2026-08-25T21:03:03.112Z</time>
      </trkpt>
      <trkpt lat="52.252839" lon="5.536954">
        <ele>0.943062</ele>
        <time>2026-08-25T21:03:24.009Z</time>
      </trkpt>
      <trkpt lat="52.251523" lon="5.536694">
        <ele>1.047160</ele>
        <time>2026-08-25T21:03:55.236Z</time>
      </trkpt>
      <trkpt lat="52.251534" lon="5.536604">
        <ele>1.047527</ele>
        <time>2026-08-25T21:03:56.315Z</time>
      </trkpt>
      <trkpt lat="52.251672" lon="5.536257">
        <ele>0.997086</ele>
        <time>2026-08-25T21:04:01.141Z</time>
      </trkpt>
      <trkpt lat="52.251996" lon="5.535444">
        <ele>0.878834</ele>
        <time>2026-08-25T21:04:12.251Z</time>
      </trkpt>
      <trkpt lat="52.252234" lon="5.534456">
        <ele>0.749411</ele>
        <time>2026-08-25T21:04:24.173Z</time>
      </trkpt>
      <trkpt lat="52.253116" lon="5.530603">
        <ele>0.009174</ele>
        <time>2026-08-25T21:05:10.140Z</time>
      </trkpt>
      <trkpt lat="52.253566" lon="5.528747">
        <ele>-0.166353</ele>
        <time>2026-08-25T21:05:33.277Z</time>
      </trkpt>
      <trkpt lat="52.253744" lon="5.527893">
        <ele>-0.211079</ele>
        <time>2026-08-25T21:05:43.868Z</time>
      </trkpt>
      <trkpt lat="52.253942" lon="5.526719">
        <ele>-0.254998</ele>
        <time>2026-08-25T21:05:58.104Z</time>
      </trkpt>
      <trkpt lat="52.254051" lon="5.525766">
        <ele>-0.289964</ele>
        <time>2026-08-25T21:06:09.261Z</time>
      </trkpt>
      <trkpt lat="52.254196" lon="5.524046">
        <ele>-0.333272</ele>
        <time>2026-08-25T21:06:29.355Z</time>
      </trkpt>
      <trkpt lat="52.254236" lon="5.523264">
        <ele>-0.352403</ele>
        <time>2026-08-25T21:06:38.554Z</time>
      </trkpt>
      <trkpt lat="52.254213" lon="5.522595">
        <ele>-0.347068</ele>
        <time>2026-08-25T21:06:46.555Z</time>
      </trkpt>
      <trkpt lat="52.254260" lon="5.521926">
        <ele>-0.277135</ele>
        <time>2026-08-25T21:06:54.767Z</time>
      </trkpt>
      <trkpt lat="52.254215" lon="5.521655">
        <ele>-0.247975</ele>
        <time>2026-08-25T21:06:58.214Z</time>
      </trkpt>
      <trkpt lat="52.253991" lon="5.520833">
        <ele>-0.154532</ele>
        <time>2026-08-25T21:07:09.207Z</time>
      </trkpt>
      <trkpt lat="52.251570" lon="5.520521">
        <ele>0.398493</ele>
        <time>2026-08-25T21:08:28.882Z</time>
      </trkpt>
      <trkpt lat="52.251455" lon="5.520561">
        <ele>0.432990</ele>
        <time>2026-08-25T21:08:32.767Z</time>
      </trkpt>
      <trkpt lat="52.251426" lon="5.520674">
        <ele>0.454998</ele>
        <time>2026-08-25T21:08:35.221Z</time>
      </trkpt>
      <trkpt lat="52.251282" lon="5.521192">
        <ele>0.557184</ele>
        <time>2026-08-25T21:08:46.629Z</time>
      </trkpt>
      <trkpt lat="52.250883" lon="5.522546">
        <ele>0.827096</ele>
        <time>2026-08-25T21:09:16.751Z</time>
      </trkpt>
      <trkpt lat="52.250836" lon="5.522511">
        <ele>0.842252</ele>
        <time>2026-08-25T21:09:18.490Z</time>
      </trkpt>
      <trkpt lat="52.250833" lon="5.522617">
        <ele>0.861312</ele>
        <time>2026-08-25T21:09:19.879Z</time>
      </trkpt>
      <trkpt lat="52.250665" lon="5.523196">
        <ele>1.012424</ele>
        <time>2026-08-25T21:09:28.489Z</time>
      </trkpt>
      <trkpt lat="52.250459" lon="5.523918">
        <ele>1.228495</ele>
        <time>2026-08-25T21:09:39.220Z</time>
      </trkpt>
      <trkpt lat="52.250264" lon="5.524585">
        <ele>1.428995</ele>
        <time>2026-08-25T21:09:49.136Z</time>
      </trkpt>
      <trkpt lat="52.249560" lon="5.526997">
        <ele>1.843461</ele>
        <time>2026-08-25T21:10:22.033Z</time>
      </trkpt>
      <trkpt lat="52.247620" lon="5.533664">
        <ele>2.165407</ele>
        <time>2026-08-25T21:11:49.998Z</time>
      </trkpt>
      <trkpt lat="52.247611" lon="5.533792">
        <ele>2.158455</ele>
        <time>2026-08-25T21:11:51.486Z</time>
      </trkpt>
      <trkpt lat="52.247599" lon="5.533836">
        <ele>2.155856</ele>
        <time>2026-08-25T21:11:52.152Z</time>
      </trkpt>
      <trkpt lat="52.247626" lon="5.533964">
        <ele>2.148552</ele>
        <time>2026-08-25T21:11:54.059Z</time>
      </trkpt>
      <trkpt lat="52.247563" lon="5.533991">
        <ele>2.142812</ele>
        <time>2026-08-25T21:11:55.146Z</time>
      </trkpt>
      <trkpt lat="52.247437" lon="5.533560">
        <ele>2.117043</ele>
        <time>2026-08-25T21:12:00.038Z</time>
      </trkpt>
      <trkpt lat="52.247384" lon="5.533605">
        <ele>2.111779</ele>
        <time>2026-08-25T21:12:01.053Z</time>
      </trkpt>
      <trkpt lat="52.247328" lon="5.533649">
        <ele>2.106303</ele>
        <time>2026-08-25T21:12:02.468Z</time>
      </trkpt>
      <trkpt lat="52.247229" lon="5.533647">
        <ele>2.097578</ele>
        <time>2026-08-25T21:12:04.701Z</time>
      </trkpt>
      <trkpt lat="52.246615" lon="5.533202">
        <ele>2.038382</ele>
        <time>2026-08-25T21:12:19.929Z</time>
      </trkpt>
      <trkpt lat="52.245920" lon="5.532630">
        <ele>2.002573</ele>
        <time>2026-08-25T21:12:37.820Z</time>
      </trkpt>
      <trkpt lat="52.245047" lon="5.531851">
        <ele>1.972862</ele>
        <time>2026-08-25T21:13:00.940Z</time>
      </trkpt>
      <trkpt lat="52.244136" lon="5.530976">
        <ele>1.850688</ele>
        <time>2026-08-25T21:13:25.147Z</time>
      </trkpt>
      <trkpt lat="52.243592" lon="5.530454">
        <ele>1.761747</ele>
        <time>2026-08-25T21:13:39.391Z</time>
      </trkpt>
      <trkpt lat="52.243486" lon="5.530683">
        <ele>1.736969</ele>
        <time>2026-08-25T21:13:43.370Z</time>
      </trkpt>
      <trkpt lat="52.243433" lon="5.530863">
        <ele>1.719730</ele>
        <time>2026-08-25T21:13:46.135Z</time>
      </trkpt>
      <trkpt lat="52.243325" lon="5.531823">
        <ele>1.714504</ele>
        <time>2026-08-25T21:13:59.712Z</time>
      </trkpt>
      <trkpt lat="52.243100" lon="5.533330">
        <ele>1.718684</ele>
        <time>2026-08-25T21:14:21.784Z</time>
      </trkpt>
      <trkpt lat="52.242763" lon="5.534891">
        <ele>1.925529</ele>
        <time>2026-08-25T21:14:46.630Z</time>
      </trkpt>
      <trkpt lat="52.242508" lon="5.535702">
        <ele>2.087504</ele>
        <time>2026-08-25T21:15:00.501Z</time>
      </trkpt>
      <trkpt lat="52.241935" lon="5.537158">
        <ele>2.332055</ele>
        <time>2026-08-25T21:15:26.438Z</time>
      </trkpt>
      <trkpt lat="52.241505" lon="5.538209">
        <ele>2.464285</ele>
        <time>2026-08-25T21:15:44.600Z</time>
      </trkpt>
      <trkpt lat="52.241049" lon="5.539310">
        <ele>2.584061</ele>
        <time>2026-08-25T21:16:03.759Z</time>
      </trkpt>
      <trkpt lat="52.240896" lon="5.539810">
        <ele>2.621720</ele>
        <time>2026-08-25T21:16:11.785Z</time>
      </trkpt>
      <trkpt lat="52.240772" lon="5.540606">
        <ele>2.677058</ele>
        <time>2026-08-25T21:16:23.704Z</time>
      </trkpt>
      <trkpt lat="52.240629" lon="5.541933">
        <ele>2.778329</ele>
        <time>2026-08-25T21:16:43.645Z</time>
      </trkpt>
      <trkpt lat="52.240581" lon="5.543999">
        <ele>2.988074</ele>
        <time>2026-08-25T21:17:13.886Z</time>
      </trkpt>
      <trkpt lat="52.240465" lon="5.545190">
        <ele>3.090216</ele>
        <time>2026-08-25T21:17:31.386Z</time>
      </trkpt>
      <trkpt lat="52.240252" lon="5.546292">
        <ele>3.171205</ele>
        <time>2026-08-25T21:17:47.980Z</time>
      </trkpt>
      <trkpt lat="52.240207" lon="5.546521">
        <ele>3.188060</ele>
        <time>2026-08-25T21:17:51.454Z</time>
      </trkpt>
      <trkpt lat="52.240113" lon="5.546908">
        <ele>3.217238</ele>
        <time>2026-08-25T21:17:57.495Z</time>
      </trkpt>
      <trkpt lat="52.240045" lon="5.547039">
        <ele>3.229274</ele>
        <time>2026-08-25T21:17:59.985Z</time>
      </trkpt>
      <trkpt lat="52.239964" lon="5.547127">
        <ele>3.240409</ele>
        <time>2026-08-25T21:18:02.313Z</time>
      </trkpt>
      <trkpt lat="52.239875" lon="5.547167">
        <ele>3.250982</ele>
        <time>2026-08-25T21:18:04.515Z</time>
      </trkpt>
      <trkpt lat="52.239757" lon="5.547167">
        <ele>3.267093</ele>
        <time>2026-08-25T21:18:07.301Z</time>
      </trkpt>
      <trkpt lat="52.238798" lon="5.546938">
        <ele>3.399423</ele>
        <time>2026-08-25T21:18:29.811Z</time>
      </trkpt>
      <trkpt lat="52.238653" lon="5.546969">
        <ele>3.419390</ele>
        <time>2026-08-25T21:18:33.251Z</time>
      </trkpt>
      <trkpt lat="52.238564" lon="5.547038">
        <ele>3.432842</ele>
        <time>2026-08-25T21:18:35.570Z</time>
      </trkpt>
      <trkpt lat="52.238134" lon="5.547731">
        <ele>3.551307</ele>
        <time>2026-08-25T21:18:50.296Z</time>
      </trkpt>
      <trkpt lat="52.237720" lon="5.548140">
        <ele>3.743672</ele>
        <time>2026-08-25T21:19:02.795Z</time>
      </trkpt>
      <trkpt lat="52.237470" lon="5.548450">
        <ele>3.868469</ele>
        <time>2026-08-25T21:19:11.053Z</time>
      </trkpt>
      <trkpt lat="52.237055" lon="5.549190">
        <ele>4.112761</ele>
        <time>2026-08-25T21:19:26.851Z</time>
      </trkpt>
      <trkpt lat="52.236965" lon="5.549305">
        <ele>4.158193</ele>
        <time>2026-08-25T21:19:29.706Z</time>
      </trkpt>
      <trkpt lat="52.236780" lon="5.546670">
        <ele>3.936202</ele>
        <time>2026-08-25T21:19:56.302Z</time>
      </trkpt>
      <trkpt lat="52.236730" lon="5.546530">
        <ele>3.917859</ele>
        <time>2026-08-25T21:19:57.892Z</time>
      </trkpt>
      <trkpt lat="52.236600" lon="5.546350">
        <ele>3.886358</ele>
        <time>2026-08-25T21:20:00.648Z</time>
      </trkpt>
      <trkpt lat="52.236490" lon="5.546260">
        <ele>3.896707</ele>
        <time>2026-08-25T21:20:02.666Z</time>
      </trkpt>
      <trkpt lat="52.235990" lon="5.545990">
        <ele>4.006681</ele>
        <time>2026-08-25T21:20:11.665Z</time>
      </trkpt>
      <trkpt lat="52.235620" lon="5.545910">
        <ele>4.084620</ele>
        <time>2026-08-25T21:20:18.624Z</time>
      </trkpt>
      <trkpt lat="52.235430" lon="5.545800">
        <ele>4.126717</ele>
        <time>2026-08-25T21:20:22.553Z</time>
      </trkpt>
      <trkpt lat="52.234520" lon="5.544760">
        <ele>4.200739</ele>
        <time>2026-08-25T21:20:43.824Z</time>
      </trkpt>
      <trkpt lat="52.234360" lon="5.544420">
        <ele>4.172234</ele>
        <time>2026-08-25T21:20:48.416Z</time>
      </trkpt>
      <trkpt lat="52.234327" lon="5.544302">
        <ele>4.163610</ele>
        <time>2026-08-25T21:20:49.761Z</time>
      </trkpt>
      <trkpt lat="52.233790" lon="5.542390">
        <ele>3.962818</ele>
        <time>2026-08-25T21:21:10.195Z</time>
      </trkpt>
      <trkpt lat="52.233680" lon="5.542090">
        <ele>3.899931</ele>
        <time>2026-08-25T21:21:13.527Z</time>
      </trkpt>
      <trkpt lat="52.233060" lon="5.540730">
        <ele>3.594998</ele>
        <time>2026-08-25T21:21:30.397Z</time>
      </trkpt>
      <trkpt lat="52.232940" lon="5.540560">
        <ele>3.548342</ele>
        <time>2026-08-25T21:21:33.100Z</time>
      </trkpt>
      <trkpt lat="52.232923" lon="5.540465">
        <ele>3.531187</ele>
        <time>2026-08-25T21:21:34.143Z</time>
      </trkpt>
      <trkpt lat="52.232660" lon="5.540238">
        <ele>3.517948</ele>
        <time>2026-08-25T21:21:39.316Z</time>
      </trkpt>
      <trkpt lat="52.232537" lon="5.540050">
        <ele>3.510450</ele>
        <time>2026-08-25T21:21:42.289Z</time>
      </trkpt>
      <trkpt lat="52.232464" lon="5.539823">
        <ele>3.503462</ele>
        <time>2026-08-25T21:21:45.054Z</time>
      </trkpt>
      <trkpt lat="52.232252" lon="5.538857">
        <ele>3.475494</ele>
        <time>2026-08-25T21:21:55.828Z</time>
      </trkpt>
      <trkpt lat="52.232124" lon="5.538569">
        <ele>3.465795</ele>
        <time>2026-08-25T21:21:59.491Z</time>
      </trkpt>
      <trkpt lat="52.231921" lon="5.538224">
        <ele>3.452755</ele>
        <time>2026-08-25T21:22:04.404Z</time>
      </trkpt>
      <trkpt lat="52.231574" lon="5.537631">
        <ele>3.495760</ele>
        <time>2026-08-25T21:22:12.820Z</time>
      </trkpt>
      <trkpt lat="52.231157" lon="5.537257">
        <ele>3.540934</ele>
        <time>2026-08-25T21:22:20.800Z</time>
      </trkpt>
      <trkpt lat="52.230900" lon="5.537052">
        <ele>3.568093</ele>
        <time>2026-08-25T21:22:25.763Z</time>
      </trkpt>
      <trkpt lat="52.230800" lon="5.537014">
        <ele>3.577842</ele>
        <time>2026-08-25T21:22:27.603Z</time>
      </trkpt>
      <trkpt lat="52.230144" lon="5.536965">
        <ele>3.710883</ele>
        <time>2026-08-25T21:22:44.096Z</time>
      </trkpt>
      <trkpt lat="52.230048" lon="5.536982">
        <ele>3.755752</ele>
        <time>2026-08-25T21:22:46.599Z</time>
      </trkpt>
      <trkpt lat="52.229967" lon="5.537040">
        <ele>3.796849</ele>
        <time>2026-08-25T21:22:48.900Z</time>
      </trkpt>
      <trkpt lat="52.229910" lon="5.537210">
        <ele>3.852006</ele>
        <time>2026-08-25T21:22:51.959Z</time>
      </trkpt>
      <trkpt lat="52.229780" lon="5.538520">
        <ele>4.229690</ele>
        <time>2026-08-25T21:23:12.767Z</time>
      </trkpt>
      <trkpt lat="52.229670" lon="5.538640">
        <ele>4.291162</ele>
        <time>2026-08-25T21:23:16.125Z</time>
      </trkpt>
      <trkpt lat="52.229510" lon="5.538680">
        <ele>4.366373</ele>
        <time>2026-08-25T21:23:20.201Z</time>
      </trkpt>
      <trkpt lat="52.229360" lon="5.538610">
        <ele>4.438862</ele>
        <time>2026-08-25T21:23:24.101Z</time>
      </trkpt>
      <trkpt lat="52.228770" lon="5.537751">
        <ele>4.716113</ele>
        <time>2026-08-25T21:23:43.448Z</time>
      </trkpt>
      <trkpt lat="52.228626" lon="5.537609">
        <ele>4.774073</ele>
        <time>2026-08-25T21:23:47.534Z</time>
      </trkpt>
      <trkpt lat="52.228344" lon="5.537594">
        <ele>4.871283</ele>
        <time>2026-08-25T21:23:54.426Z</time>
      </trkpt>
      <trkpt lat="52.228240" lon="5.537673">
        <ele>4.910802</ele>
        <time>2026-08-25T21:23:57.249Z</time>
      </trkpt>
      <trkpt lat="52.228116" lon="5.537841">
        <ele>4.966319</ele>
        <time>2026-08-25T21:24:01.230Z</time>
      </trkpt>
      <trkpt lat="52.227294" lon="5.537789">
        <ele>5.199268</ele>
        <time>2026-08-25T21:24:22.034Z</time>
      </trkpt>
      <trkpt lat="52.226520" lon="5.537740">
        <ele>5.387952</ele>
        <time>2026-08-25T21:24:41.139Z</time>
      </trkpt>
      <trkpt lat="52.226230" lon="5.537640">
        <ele>5.460153</ele>
        <time>2026-08-25T21:24:48.016Z</time>
      </trkpt>
      <trkpt lat="52.225990" lon="5.537460">
        <ele>5.513501</ele>
        <time>2026-08-25T21:24:54.049Z</time>
      </trkpt>
      <trkpt lat="52.225630" lon="5.536860">
        <ele>5.483707</ele>
        <time>2026-08-25T21:25:05.714Z</time>
      </trkpt>
      <trkpt lat="52.225580" lon="5.536550">
        <ele>5.472336</ele>
        <time>2026-08-25T21:25:10.173Z</time>
      </trkpt>
      <trkpt lat="52.225572" lon="5.536351">
        <ele>5.465261</ele>
        <time>2026-08-25T21:25:12.955Z</time>
      </trkpt>
      <trkpt lat="52.225580" lon="5.536158">
        <ele>5.458399</ele>
        <time>2026-08-25T21:25:15.640Z</time>
      </trkpt>
      <trkpt lat="52.225693" lon="5.535298">
        <ele>5.427198</ele>
        <time>2026-08-25T21:25:27.990Z</time>
      </trkpt>
      <trkpt lat="52.225632" lon="5.534996">
        <ele>5.415918</ele>
        <time>2026-08-25T21:25:32.612Z</time>
      </trkpt>
      <trkpt lat="52.225482" lon="5.534620">
        <ele>5.411645</ele>
        <time>2026-08-25T21:25:39.194Z</time>
      </trkpt>
      <trkpt lat="52.225339" lon="5.534270">
        <ele>5.411898</ele>
        <time>2026-08-25T21:25:45.394Z</time>
      </trkpt>
      <trkpt lat="52.225090" lon="5.533572">
        <ele>5.412384</ele>
        <time>2026-08-25T21:25:55.141Z</time>
      </trkpt>
      <trkpt lat="52.224292" lon="5.530655">
        <ele>5.327979</ele>
        <time>2026-08-25T21:26:31.944Z</time>
      </trkpt>
      <trkpt lat="52.224206" lon="5.530263">
        <ele>5.308366</ele>
        <time>2026-08-25T21:26:36.758Z</time>
      </trkpt>
      <trkpt lat="52.224107" lon="5.529511">
        <ele>5.264946</ele>
        <time>2026-08-25T21:26:45.647Z</time>
      </trkpt>
      <trkpt lat="52.223944" lon="5.528237">
        <ele>5.044942</ele>
        <time>2026-08-25T21:27:00.647Z</time>
      </trkpt>
      <trkpt lat="52.223824" lon="5.527073">
        <ele>4.845411</ele>
        <time>2026-08-25T21:27:13.781Z</time>
      </trkpt>
      <trkpt lat="52.223789" lon="5.526735">
        <ele>4.787465</ele>
        <time>2026-08-25T21:27:18.365Z</time>
      </trkpt>
      <trkpt lat="52.223777" lon="5.526618">
        <ele>4.757147</ele>
        <time>2026-08-25T21:27:19.947Z</time>
      </trkpt>
      <trkpt lat="52.226833" lon="5.526164">
        <ele>3.132835</ele>
        <time>2026-08-25T21:28:14.501Z</time>
      </trkpt>
      <trkpt lat="52.227476" lon="5.526079">
        <ele>2.806429</ele>
        <time>2026-08-25T21:28:28.614Z</time>
      </trkpt>
      <trkpt lat="52.227742" lon="5.526035">
        <ele>2.690255</ele>
        <time>2026-08-25T21:28:34.459Z</time>
      </trkpt>
      <trkpt lat="52.227847" lon="5.525983">
        <ele>2.642577</ele>
        <time>2026-08-25T21:28:36.868Z</time>
      </trkpt>
      <trkpt lat="52.228868" lon="5.524561">
        <ele>2.083349</ele>
        <time>2026-08-25T21:29:06.419Z</time>
      </trkpt>
      <trkpt lat="52.229420" lon="5.523790">
        <ele>1.992202</ele>
        <time>2026-08-25T21:29:22.931Z</time>
      </trkpt>
      <trkpt lat="52.229490" lon="5.523650">
        <ele>1.978313</ele>
        <time>2026-08-25T21:29:25.476Z</time>
      </trkpt>
      <trkpt lat="52.229550" lon="5.523420">
        <ele>1.959101</ele>
        <time>2026-08-25T21:29:29.002Z</time>
      </trkpt>
      <trkpt lat="52.229653" lon="5.522570">
        <ele>1.892512</ele>
        <time>2026-08-25T21:29:41.246Z</time>
      </trkpt>
      <trkpt lat="52.229690" lon="5.522270">
        <ele>1.868994</ele>
        <time>2026-08-25T21:29:45.564Z</time>
      </trkpt>
      <trkpt lat="52.230418" lon="5.517794">
        <ele>1.579319</ele>
        <time>2026-08-25T21:30:40.681Z</time>
      </trkpt>
      <trkpt lat="52.230554" lon="5.516909">
        <ele>1.543756</ele>
        <time>2026-08-25T21:30:50.431Z</time>
      </trkpt>
      <trkpt lat="52.230729" lon="5.515019">
        <ele>1.440115</ele>
        <time>2026-08-25T21:31:10.768Z</time>
      </trkpt>
      <trkpt lat="52.230782" lon="5.514427">
        <ele>1.405626</ele>
        <time>2026-08-25T21:31:16.894Z</time>
      </trkpt>
      <trkpt lat="52.230869" lon="5.513402">
        <ele>1.337286</ele>
        <time>2026-08-25T21:31:27.191Z</time>
      </trkpt>
      <trkpt lat="52.230799" lon="5.511969">
        <ele>1.205871</ele>
        <time>2026-08-25T21:31:41.573Z</time>
      </trkpt>
      <trkpt lat="52.230587" lon="5.510816">
        <ele>1.095821</ele>
        <time>2026-08-25T21:31:54.043Z</time>
      </trkpt>
      <trkpt lat="52.230427" lon="5.509681">
        <ele>1.077609</ele>
        <time>2026-08-25T21:32:06.989Z</time>
      </trkpt>
      <trkpt lat="52.230435" lon="5.509191">
        <ele>1.071195</ele>
        <time>2026-08-25T21:32:12.185Z</time>
      </trkpt>
      <trkpt lat="52.230544" lon="5.508673">
        <ele>1.064029</ele>
        <time>2026-08-25T21:32:17.864Z</time>
      </trkpt>
      <trkpt lat="52.230605" lon="5.508566">
        <ele>1.062116</ele>
        <time>2026-08-25T21:32:19.354Z</time>
      </trkpt>
      <trkpt lat="52.230461" lon="5.507449">
        <ele>0.998272</ele>
        <time>2026-08-25T21:32:30.765Z</time>
      </trkpt>
      <trkpt lat="52.230236" lon="5.506417">
        <ele>0.880034</ele>
        <time>2026-08-25T21:32:41.555Z</time>
      </trkpt>
      <trkpt lat="52.230028" lon="5.505614">
        <ele>0.785928</ele>
        <time>2026-08-25T21:32:50.521Z</time>
      </trkpt>
      <trkpt lat="52.229859" lon="5.504963">
        <ele>0.766942</ele>
        <time>2026-08-25T21:32:58.046Z</time>
      </trkpt>
      <trkpt lat="52.227942" lon="5.502181">
        <ele>1.596665</ele>
        <time>2026-08-25T21:33:44.895Z</time>
      </trkpt>
      <trkpt lat="52.227735" lon="5.502005">
        <ele>1.726407</ele>
        <time>2026-08-25T21:33:49.708Z</time>
      </trkpt>
      <trkpt lat="52.227359" lon="5.501864">
        <ele>1.940869</ele>
        <time>2026-08-25T21:33:57.727Z</time>
      </trkpt>
      <trkpt lat="52.227142" lon="5.501637">
        <ele>2.084138</ele>
        <time>2026-08-25T21:34:03.195Z</time>
      </trkpt>
      <trkpt lat="52.226358" lon="5.503161">
        <ele>2.762562</ele>
        <time>2026-08-25T21:34:29.256Z</time>
      </trkpt>
      <trkpt lat="52.226042" lon="5.503747">
        <ele>3.028704</ele>
        <time>2026-08-25T21:34:37.539Z</time>
      </trkpt>
      <trkpt lat="52.225980" lon="5.503878">
        <ele>3.085138</ele>
        <time>2026-08-25T21:34:39.208Z</time>
      </trkpt>
      <trkpt lat="52.225890" lon="5.504199">
        <ele>2.934187</ele>
        <time>2026-08-25T21:34:42.731Z</time>
      </trkpt>
      <trkpt lat="52.225851" lon="5.504456">
        <ele>2.820708</ele>
        <time>2026-08-25T21:34:45.312Z</time>
      </trkpt>
      <trkpt lat="52.225809" lon="5.504743">
        <ele>2.694239</ele>
        <time>2026-08-25T21:34:48.134Z</time>
      </trkpt>
      <trkpt lat="52.225738" lon="5.505058">
        <ele>2.550381</ele>
        <time>2026-08-25T21:34:51.269Z</time>
      </trkpt>
      <trkpt lat="52.225220" lon="5.506380">
        <ele>1.877767</ele>
        <time>2026-08-25T21:35:05.423Z</time>
      </trkpt>
      <trkpt lat="52.225053" lon="5.506907">
        <ele>1.763974</ele>
        <time>2026-08-25T21:35:11.024Z</time>
      </trkpt>
      <trkpt lat="52.225008" lon="5.506828">
        <ele>1.749688</ele>
        <time>2026-08-25T21:35:12.189Z</time>
      </trkpt>
      <trkpt lat="52.224966" lon="5.506202">
        <ele>1.666295</ele>
        <time>2026-08-25T21:35:19.217Z</time>
      </trkpt>
      <trkpt lat="52.224910" lon="5.505953">
        <ele>1.631169</ele>
        <time>2026-08-25T21:35:22.278Z</time>
      </trkpt>
      <trkpt lat="52.224868" lon="5.505861">
        <ele>1.615975</ele>
        <time>2026-08-25T21:35:23.604Z</time>
      </trkpt>
      <trkpt lat="52.224514" lon="5.505272">
        <ele>1.506703</ele>
        <time>2026-08-25T21:35:33.434Z</time>
      </trkpt>
      <trkpt lat="52.224201" lon="5.504944">
        <ele>1.460237</ele>
        <time>2026-08-25T21:35:40.877Z</time>
      </trkpt>
      <trkpt lat="52.223922" lon="5.504513">
        <ele>1.618710</ele>
        <time>2026-08-25T21:35:48.910Z</time>
      </trkpt>
      <trkpt lat="52.223817" lon="5.504432">
        <ele>1.666623</ele>
        <time>2026-08-25T21:35:51.371Z</time>
      </trkpt>
      <trkpt lat="52.223688" lon="5.504391">
        <ele>1.720843</ele>
        <time>2026-08-25T21:35:54.144Z</time>
      </trkpt>
      <trkpt lat="52.223291" lon="5.504325">
        <ele>1.885477</ele>
        <time>2026-08-25T21:36:02.668Z</time>
      </trkpt>
      <trkpt lat="52.223107" lon="5.504255">
        <ele>1.963423</ele>
        <time>2026-08-25T21:36:06.712Z</time>
      </trkpt>
      <trkpt lat="52.222568" lon="5.504190">
        <ele>2.180533</ele>
        <time>2026-08-25T21:36:18.281Z</time>
      </trkpt>
      <trkpt lat="52.222445" lon="5.503992">
        <ele>2.186280</ele>
        <time>2026-08-25T21:36:21.930Z</time>
      </trkpt>
      <trkpt lat="52.221890" lon="5.503879">
        <ele>2.204886</ele>
        <time>2026-08-25T21:36:33.389Z</time>
      </trkpt>
      <trkpt lat="52.221822" lon="5.503865">
        <ele>2.207166</ele>
        <time>2026-08-25T21:36:34.751Z</time>
      </trkpt>
      <trkpt lat="52.221788" lon="5.503819">
        <ele>2.208635</ele>
        <time>2026-08-25T21:36:35.609Z</time>
      </trkpt>
      <trkpt lat="52.221771" lon="5.503697">
        <ele>2.211185</ele>
        <time>2026-08-25T21:36:37.109Z</time>
      </trkpt>
      <trkpt lat="52.222313" lon="5.502091">
        <ele>2.239853</ele>
        <time>2026-08-25T21:36:55.462Z</time>
      </trkpt>
      <trkpt lat="52.222361" lon="5.501947">
        <ele>2.239853</ele>
        <time>2026-08-25T21:36:57.050Z</time>
      </trkpt>
      <trkpt lat="52.222361" lon="5.501947">
        <ele>2.239853</ele>
        <time>2026-08-25T21:36:57.060Z</time>
      </trkpt>
      <trkpt lat="52.223205" lon="5.502346">
        <ele>2.239853</ele>
        <time>2026-08-25T21:37:15.850Z</time>
      </trkpt>
    </trkseg>
  </trk>
</gpx>